Time,TemperatureF,DewpointF,PressureIn,WindDirection,WindDirectionDegrees,WindSpeedMPH,WindSpeedGustMPH,Humidity,HourlyPrecipIn,Conditions,Clouds,dailyrainin,SolarRadiationWatts/m^2,SoftwareType,DateUTC
2013-02-25 00:01:00,24.6,21.6,30.21,ESE,123,2.2,2.2,88,0.00,,,0.00,0.00,VWS V14.01,2013-02-25 06:01:00,
2013-02-25 00:04:00,24.4,21.4,30.21,ESE,123,0.0,0.0,88,0.00,,,0.00,0.00,VWS V14.01,2013-02-25 06:04:00,
2013-02-25 00:05:00,24.3,21.3,30.21,ESE,123,1.1,1.1,88,0.00,,,0.00,0.00,VWS V14.01,2013-02-25 06:05:00,
2013-02-25 00:07:00,24.3,21.3,30.21,ESE,123,0.0,0.0,88,0.00,,,0.00,0.00,VWS V14.01,2013-02-25 06:07:00,
2013-02-25 00:09:00,24.3,21.3,30.21,ESE,123,0.0,0.0,88,0.00,,,0.00,0.00,VWS V14.01,2013-02-25 06:09:00,
2013-02-25 00:10:00,24.3,21.5,30.21,ESE,123,0.0,0.0,89,0.00,,,0.00,0.00,VWS V14.01,2013-02-25 06:10:00,
2013-02-25 00:14:00,24.3,21.5,30.21,ESE,123,0.0,0.0,89,0.00,,,0.00,0.00,VWS V14.01,2013-02-25 06:14:00,
2013-02-25 00:15:00,24.2,21.2,30.21,ESE,123,0.0,0.0,88,0.00,,,0.00,0.00,VWS V14.01,2013-02-25 06:15:00,
2013-02-25 00:19:00,24.0,21.2,30.21,ESE,123,0.0,0.0,89,0.00,,,0.00,0.00,VWS V14.01,2013-02-25 06:19:00,
2013-02-25 00:20:00,24.0,21.2,30.21,ESE,123,0.0,0.0,89,0.00,,,0.00,0.00,VWS V14.01,2013-02-25 06:20:00,
2013-02-25 00:21:00,24.0,21.2,30.21,ESE,123,0.0,0.0,89,0.00,,,0.00,0.00,VWS V14.01,2013-02-25 06:21:00,
2013-02-25 00:25:00,24.0,21.2,30.21,ESE,123,0.0,0.0,89,0.00,,,0.00,0.00,VWS V14.01,2013-02-25 06:25:00,
2013-02-25 00:26:00,24.1,21.3,30.21,ESE,123,0.0,0.0,89,0.00,,,0.00,0.00,VWS V14.01,2013-02-25 06:26:00,
2013-02-25 00:30:00,24.2,21.4,30.21,ESE,119,0.0,0.0,89,0.00,,,0.00,0.00,VWS V14.01,2013-02-25 06:30:00,
2013-02-25 00:31:00,24.1,21.3,30.21,ESE,119,0.0,0.0,89,0.00,,,0.00,0.00,VWS V14.01,2013-02-25 06:31:00,
2013-02-25 00:32:00,24.1,21.3,30.21,ESE,119,0.0,0.0,89,0.00,,,0.00,0.00,VWS V14.01,2013-02-25 06:32:00,
2013-02-25 00:35:00,24.0,21.2,30.20,ESE,119,0.0,0.0,89,0.00,,,0.00,0.00,VWS V14.01,2013-02-25 06:35:00,
2013-02-25 00:36:00,24.0,21.5,30.21,ESE,119,0.0,0.0,90,0.00,,,0.00,0.00,VWS V14.01,2013-02-25 06:36:00,
2013-02-25 00:37:00,24.0,21.5,30.21,ESE,119,0.0,0.0,90,0.00,,,0.00,0.00,VWS V14.01,2013-02-25 06:37:00,
2013-02-25 00:41:00,23.9,21.4,30.20,ESE,119,0.0,0.0,90,0.00,,,0.00,0.00,VWS V14.01,2013-02-25 06:41:00,
2013-02-25 00:42:00,23.8,21.3,30.20,ESE,119,0.0,0.0,90,0.00,,,0.00,0.00,VWS V14.01,2013-02-25 06:42:00,
2013-02-25 00:43:00,23.8,21.3,30.20,ESE,119,0.0,0.0,90,0.00,,,0.00,0.00,VWS V14.01,2013-02-25 06:43:00,
2013-02-25 00:46:00,23.8,21.3,30.20,ESE,119,0.0,0.0,90,0.00,,,0.00,0.00,VWS V14.01,2013-02-25 06:46:00,
2013-02-25 00:47:00,23.8,21.3,30.20,ESE,119,0.0,0.0,90,0.00,,,0.00,0.00,VWS V14.01,2013-02-25 06:47:00,
2013-02-25 00:48:00,23.7,21.2,30.20,ESE,119,0.0,0.0,90,0.00,,,0.00,0.00,VWS V14.01,2013-02-25 06:48:00,
2013-02-25 00:49:00,23.7,21.2,30.20,ESE,119,0.0,0.0,90,0.00,,,0.00,0.00,VWS V14.01,2013-02-25 06:49:00,
2013-02-25 00:51:00,23.7,21.2,30.20,ESE,119,0.0,1.1,90,0.00,,,0.00,0.00,VWS V14.01,2013-02-25 06:51:00,
2013-02-25 00:53:00,23.7,21.2,30.20,ESE,119,0.0,0.0,90,0.00,,,0.00,0.00,VWS V14.01,2013-02-25 06:53:00,
2013-02-25 00:55:00,23.7,21.2,30.20,ESE,119,0.0,1.1,90,0.00,,,0.00,0.00,VWS V14.01,2013-02-25 06:55:00,
2013-02-25 00:57:00,23.6,21.1,30.20,ESE,119,0.0,0.0,90,0.00,,,0.00,0.00,VWS V14.01,2013-02-25 06:57:00,
2013-02-25 00:58:00,23.6,21.1,30.20,ESE,119,0.0,1.1,90,0.00,,,0.00,0.00,VWS V14.01,2013-02-25 06:58:00,
2013-02-25 01:00:00,23.6,21.1,30.20,ESE,119,0.0,1.1,90,0.00,,,0.00,0.00,VWS V14.01,2013-02-25 07:00:00,
2013-02-25 01:02:00,23.4,20.9,30.20,ESE,119,0.0,1.1,90,0.00,,,0.00,0.00,VWS V14.01,2013-02-25 07:02:00,
2013-02-25 01:03:00,23.5,21.0,30.20,ESE,119,0.0,1.1,90,0.00,,,0.00,0.00,VWS V14.01,2013-02-25 07:03:00,
2013-02-25 01:05:00,23.5,21.0,30.20,ESE,119,1.1,1.1,90,0.00,,,0.00,0.00,VWS V14.01,2013-02-25 07:05:00,
2013-02-25 01:06:00,23.5,21.0,30.20,ESE,119,1.1,1.1,90,0.00,,,0.00,0.00,VWS V14.01,2013-02-25 07:06:00,
2013-02-25 01:07:00,23.5,21.0,30.20,ESE,119,0.0,2.2,90,0.00,,,0.00,0.00,VWS V14.01,2013-02-25 07:07:00,
2013-02-25 01:08:00,23.6,21.1,30.20,ESE,119,2.2,2.2,90,0.00,,,0.00,0.00,VWS V14.01,2013-02-25 07:08:00,
2013-02-25 01:11:00,23.6,21.1,30.20,ESE,119,0.0,2.2,90,0.00,,,0.00,0.00,VWS V14.01,2013-02-25 07:11:00,
2013-02-25 01:12:00,23.6,21.1,30.20,ESE,119,1.1,1.1,90,0.00,,,0.00,0.00,VWS V14.01,2013-02-25 07:12:00,
2013-02-25 01:13:00,23.6,21.1,30.20,ESE,119,0.0,1.1,90,0.00,,,0.00,0.00,VWS V14.01,2013-02-25 07:13:00,
2013-02-25 01:15:00,23.7,21.2,30.20,ESE,119,0.0,1.1,90,0.00,,,0.00,0.00,VWS V14.01,2013-02-25 07:15:00,
2013-02-25 01:17:00,23.9,21.4,30.20,ESE,119,1.1,1.1,90,0.00,,,0.00,0.00,VWS V14.01,2013-02-25 07:17:00,
2013-02-25 01:18:00,23.9,21.4,30.20,ESE,119,0.0,0.0,90,0.00,,,0.00,0.00,VWS V14.01,2013-02-25 07:18:00,
2013-02-25 01:19:00,24.2,21.7,30.20,ESE,119,0.0,0.0,90,0.00,,,0.00,0.00,VWS V14.01,2013-02-25 07:19:00,
2013-02-25 01:20:00,24.4,21.6,30.20,ESE,119,0.0,0.0,89,0.00,,,0.00,0.00,VWS V14.01,2013-02-25 07:20:00,
2013-02-25 01:22:00,24.4,21.6,30.20,ESE,119,0.0,0.0,89,0.00,,,0.00,0.00,VWS V14.01,2013-02-25 07:22:00,
2013-02-25 01:23:00,24.3,21.5,30.20,ESE,119,0.0,0.0,89,0.00,,,0.00,0.00,VWS V14.01,2013-02-25 07:23:00,
2013-02-25 01:25:00,24.1,21.1,30.20,ESE,119,0.0,0.0,88,0.00,,,0.00,0.00,VWS V14.01,2013-02-25 07:25:00,
2013-02-25 01:26:00,24.1,21.1,30.20,ESE,119,0.0,0.0,88,0.00,,,0.00,0.00,VWS V14.01,2013-02-25 07:26:00,
2013-02-25 01:28:00,23.9,21.1,30.20,ESE,119,1.1,1.1,89,0.00,,,0.00,0.00,VWS V14.01,2013-02-25 07:28:00,
2013-02-25 01:31:00,23.6,20.8,30.20,ESE,119,0.0,0.0,89,0.00,,,0.00,0.00,VWS V14.01,2013-02-25 07:31:00,
2013-02-25 01:32:00,23.7,20.9,30.20,ESE,119,0.0,0.0,89,0.00,,,0.00,0.00,VWS V14.01,2013-02-25 07:32:00,
2013-02-25 01:33:00,23.8,21.0,30.20,ESE,119,0.0,0.0,89,0.00,,,0.00,0.00,VWS V14.01,2013-02-25 07:33:00,
2013-02-25 01:34:00,23.7,20.9,30.20,ESE,119,0.0,1.1,89,0.00,,,0.00,0.00,VWS V14.01,2013-02-25 07:34:00,
2013-02-25 01:37:00,23.5,20.7,30.20,ESE,119,0.0,0.0,89,0.00,,,0.00,0.00,VWS V14.01,2013-02-25 07:37:00,
2013-02-25 01:39:00,23.4,20.6,30.20,ESE,119,1.1,1.1,89,0.00,,,0.00,0.00,VWS V14.01,2013-02-25 07:39:00,
2013-02-25 01:42:00,23.4,20.6,30.20,ESE,119,0.0,1.1,89,0.00,,,0.00,0.00,VWS V14.01,2013-02-25 07:42:00,
2013-02-25 01:44:00,23.3,20.5,30.20,ESE,119,0.0,2.2,89,0.00,,,0.00,0.00,VWS V14.01,2013-02-25 07:44:00,
2013-02-25 01:47:00,23.3,20.5,30.20,ESE,119,1.1,2.2,89,0.00,,,0.00,0.00,VWS V14.01,2013-02-25 07:47:00,
2013-02-25 01:48:00,23.3,20.8,30.20,ESE,119,0.0,0.0,90,0.00,,,0.00,0.00,VWS V14.01,2013-02-25 07:48:00,
2013-02-25 01:49:00,23.3,20.8,30.20,ESE,119,0.0,0.0,90,0.00,,,0.00,0.00,VWS V14.01,2013-02-25 07:49:00,
2013-02-25 01:50:00,23.3,20.8,30.20,ESE,119,0.0,0.0,90,0.00,,,0.00,0.00,VWS V14.01,2013-02-25 07:50:00,
2013-02-25 01:52:00,23.4,20.9,30.20,ESE,119,0.0,0.0,90,0.00,,,0.00,0.00,VWS V14.01,2013-02-25 07:52:00,
2013-02-25 01:54:00,23.4,20.9,30.20,ESE,119,0.0,0.0,90,0.00,,,0.00,0.00,VWS V14.01,2013-02-25 07:54:00,
2013-02-25 01:55:00,23.3,20.5,30.20,ESE,119,0.0,0.0,89,0.00,,,0.00,0.00,VWS V14.01,2013-02-25 07:55:00,
2013-02-25 01:57:00,23.3,20.8,30.20,ESE,119,0.0,0.0,90,0.00,,,0.00,0.00,VWS V14.01,2013-02-25 07:57:00,
2013-02-25 02:00:00,23.2,20.5,30.20,ESE,119,0.0,1.1,89,0.00,,,0.00,0.00,VWS V14.01,2013-02-25 08:00:00,
2013-02-25 02:01:00,23.3,20.8,30.20,ESE,119,0.0,0.0,90,0.00,,,0.00,0.00,VWS V14.01,2013-02-25 08:01:00,
2013-02-25 02:03:00,23.5,21.0,30.20,ESE,119,1.1,1.1,90,0.00,,,0.00,0.00,VWS V14.01,2013-02-25 08:03:00,
2013-02-25 02:06:00,23.4,20.6,30.20,ESE,119,0.0,1.1,89,0.00,,,0.00,0.00,VWS V14.01,2013-02-25 08:06:00,
2013-02-25 02:07:00,23.4,20.9,30.20,ESE,119,1.1,1.1,90,0.00,,,0.00,0.00,VWS V14.01,2013-02-25 08:07:00,
2013-02-25 02:09:00,23.4,20.9,30.20,ESE,119,0.0,0.0,90,0.00,,,0.00,0.00,VWS V14.01,2013-02-25 08:09:00,
2013-02-25 02:12:00,23.1,20.4,30.20,ESE,119,1.1,2.2,89,0.00,,,0.00,0.00,VWS V14.01,2013-02-25 08:12:00,
2013-02-25 02:13:00,23.1,20.4,30.20,ESE,119,0.0,0.0,89,0.00,,,0.00,0.00,VWS V14.01,2013-02-25 08:13:00,
2013-02-25 02:14:00,23.2,20.7,30.20,ESE,119,0.0,0.0,90,0.00,,,0.00,0.00,VWS V14.01,2013-02-25 08:14:00,
2013-02-25 02:17:00,23.1,20.6,30.20,ESE,119,0.0,1.1,90,0.00,,,0.00,0.00,VWS V14.01,2013-02-25 08:17:00,
2013-02-25 02:18:00,23.1,20.6,30.20,ESE,119,0.0,1.1,90,0.00,,,0.00,0.00,VWS V14.01,2013-02-25 08:18:00,
2013-02-25 02:19:00,23.0,20.5,30.20,ESE,118,3.3,3.3,90,0.00,,,0.00,0.00,VWS V14.01,2013-02-25 08:19:00,
2013-02-25 02:22:00,23.1,20.6,30.20,ESE,118,1.1,2.2,90,0.00,,,0.00,0.00,VWS V14.01,2013-02-25 08:22:00,
2013-02-25 02:23:00,23.2,20.7,30.20,ESE,118,1.1,1.1,90,0.00,,,0.00,0.00,VWS V14.01,2013-02-25 08:23:00,
2013-02-25 02:24:00,23.2,20.7,30.20,ESE,118,2.2,2.2,90,0.00,,,0.00,0.00,VWS V14.01,2013-02-25 08:24:00,
2013-02-25 02:27:00,23.2,20.7,30.20,ESE,118,1.1,2.2,90,0.00,,,0.00,0.00,VWS V14.01,2013-02-25 08:27:00,
2013-02-25 02:29:00,23.2,20.7,30.20,ESE,118,1.1,3.3,90,0.00,,,0.00,0.00,VWS V14.01,2013-02-25 08:29:00,
2013-02-25 02:30:00,23.3,20.8,30.20,ESE,117,2.2,3.3,90,0.00,,,0.00,0.00,VWS V14.01,2013-02-25 08:30:00,
2013-02-25 02:32:00,23.4,20.9,30.19,ESE,113,1.1,2.2,90,0.00,,,0.00,0.00,VWS V14.01,2013-02-25 08:32:00,
2013-02-25 02:34:00,23.4,20.9,30.19,ESE,111,0.0,3.3,90,0.00,,,0.00,0.00,VWS V14.01,2013-02-25 08:34:00,
2013-02-25 02:35:00,23.3,20.8,30.19,ESE,111,0.0,1.1,90,0.00,,,0.00,0.00,VWS V14.01,2013-02-25 08:35:00,
2013-02-25 02:38:00,23.3,20.8,30.19,East,95,0.0,3.3,90,0.00,,,0.00,0.00,VWS V14.01,2013-02-25 08:38:00,
2013-02-25 02:39:00,23.3,20.8,30.19,East,95,1.1,1.1,90,0.00,,,0.00,0.00,VWS V14.01,2013-02-25 08:39:00,
2013-02-25 02:40:00,23.3,20.8,30.19,East,95,0.0,1.1,90,0.00,,,0.00,0.00,VWS V14.01,2013-02-25 08:40:00,
2013-02-25 02:43:00,23.3,20.8,30.19,East,95,1.1,2.2,90,0.00,,,0.00,0.00,VWS V14.01,2013-02-25 08:43:00,
2013-02-25 02:44:00,23.5,21.0,30.19,East,95,0.0,0.0,90,0.00,,,0.00,0.00,VWS V14.01,2013-02-25 08:44:00,
2013-02-25 02:45:00,23.6,21.1,30.19,East,95,0.0,0.0,90,0.00,,,0.00,0.00,VWS V14.01,2013-02-25 08:45:00,
2013-02-25 02:46:00,23.6,21.1,30.19,East,95,0.0,1.1,90,0.00,,,0.00,0.00,VWS V14.01,2013-02-25 08:46:00,
2013-02-25 02:48:00,23.7,20.9,30.19,East,95,1.1,1.1,89,0.00,,,0.00,0.00,VWS V14.01,2013-02-25 08:48:00,
2013-02-25 02:50:00,23.6,20.8,30.19,East,95,2.2,2.2,89,0.00,,,0.00,0.00,VWS V14.01,2013-02-25 08:50:00,
2013-02-25 02:52:00,23.5,20.7,30.19,East,95,2.2,2.2,89,0.00,,,0.00,0.00,VWS V14.01,2013-02-25 08:52:00,
2013-02-25 02:54:00,23.6,21.1,30.19,East,95,1.1,2.2,90,0.00,,,0.00,0.00,VWS V14.01,2013-02-25 08:54:00,
2013-02-25 02:55:00,23.6,21.1,30.19,East,95,1.1,1.1,90,0.00,,,0.00,0.00,VWS V14.01,2013-02-25 08:55:00,
2013-02-25 02:57:00,23.6,20.8,30.19,East,95,0.0,0.0,89,0.00,,,0.00,0.00,VWS V14.01,2013-02-25 08:57:00,
2013-02-25 02:58:00,23.5,20.7,30.19,East,95,1.1,1.1,89,0.00,,,0.00,0.00,VWS V14.01,2013-02-25 08:58:00,
2013-02-25 02:59:00,23.3,20.5,30.19,East,95,0.0,0.0,89,0.00,,,0.00,0.00,VWS V14.01,2013-02-25 08:59:00,
2013-02-25 03:00:00,23.2,20.5,30.19,East,95,0.0,1.1,89,0.00,,,0.00,0.00,VWS V14.01,2013-02-25 09:00:00,
2013-02-25 03:02:00,23.1,20.6,30.19,East,95,0.0,1.1,90,0.00,,,0.00,0.00,VWS V14.01,2013-02-25 09:02:00,
2013-02-25 03:03:00,23.1,20.6,30.19,East,95,0.0,1.1,90,0.00,,,0.00,0.00,VWS V14.01,2013-02-25 09:03:00,
2013-02-25 03:06:00,22.9,20.4,30.19,East,95,0.0,0.0,90,0.00,,,0.00,0.00,VWS V14.01,2013-02-25 09:06:00,
2013-02-25 03:07:00,22.9,20.4,30.19,East,95,0.0,0.0,90,0.00,,,0.00,0.00,VWS V14.01,2013-02-25 09:07:00,
2013-02-25 03:08:00,22.9,20.4,30.19,East,95,0.0,0.0,90,0.00,,,0.00,0.00,VWS V14.01,2013-02-25 09:08:00,
2013-02-25 03:11:00,22.8,20.3,30.19,East,95,0.0,0.0,90,0.00,,,0.00,0.00,VWS V14.01,2013-02-25 09:11:00,
2013-02-25 03:13:00,22.7,20.2,30.19,East,95,0.0,0.0,90,0.00,,,0.00,0.00,VWS V14.01,2013-02-25 09:13:00,
2013-02-25 03:16:00,22.6,20.1,30.19,East,95,0.0,0.0,90,0.00,,,0.00,0.00,VWS V14.01,2013-02-25 09:16:00,
2013-02-25 03:19:00,22.6,20.1,30.19,East,95,0.0,0.0,90,0.00,,,0.00,0.00,VWS V14.01,2013-02-25 09:19:00,
2013-02-25 03:22:00,22.5,20.0,30.20,East,95,0.0,0.0,90,0.00,,,0.00,0.00,VWS V14.01,2013-02-25 09:22:00,
2013-02-25 03:24:00,22.6,20.4,30.20,East,95,0.0,0.0,91,0.00,,,0.00,0.00,VWS V14.01,2013-02-25 09:24:00,
2013-02-25 03:25:00,22.5,20.3,30.19,East,95,0.0,0.0,91,0.00,,,0.00,0.00,VWS V14.01,2013-02-25 09:25:00,
2013-02-25 03:27:00,22.5,20.3,30.20,East,95,0.0,0.0,91,0.00,,,0.00,0.00,VWS V14.01,2013-02-25 09:27:00,
2013-02-25 03:29:00,22.5,20.0,30.20,East,95,1.1,1.1,90,0.00,,,0.00,0.00,VWS V14.01,2013-02-25 09:29:00,
2013-02-25 03:30:00,22.5,20.3,30.20,East,95,1.1,1.1,91,0.00,,,0.00,0.00,VWS V14.01,2013-02-25 09:30:00,
2013-02-25 03:31:00,22.5,20.3,30.19,East,95,1.1,1.1,91,0.00,,,0.00,0.00,VWS V14.01,2013-02-25 09:31:00,
2013-02-25 03:33:00,22.5,20.3,30.19,East,95,0.0,1.1,91,0.00,,,0.00,0.00,VWS V14.01,2013-02-25 09:33:00,
2013-02-25 03:35:00,22.4,20.2,30.19,East,95,0.0,1.1,91,0.00,,,0.00,0.00,VWS V14.01,2013-02-25 09:35:00,
2013-02-25 03:37:00,22.4,20.2,30.19,East,95,0.0,0.0,91,0.00,,,0.00,0.00,VWS V14.01,2013-02-25 09:37:00,
2013-02-25 03:39:00,22.5,20.3,30.20,East,95,0.0,1.1,91,0.00,,,0.00,0.00,VWS V14.01,2013-02-25 09:39:00,
2013-02-25 03:40:00,22.6,20.4,30.20,East,95,0.0,0.0,91,0.00,,,0.00,0.00,VWS V14.01,2013-02-25 09:40:00,
2013-02-25 03:41:00,22.7,20.5,30.20,East,95,0.0,0.0,91,0.00,,,0.00,0.00,VWS V14.01,2013-02-25 09:41:00,
2013-02-25 03:42:00,22.7,20.7,30.20,East,95,0.0,0.0,92,0.00,,,0.00,0.00,VWS V14.01,2013-02-25 09:42:00,
2013-02-25 03:44:00,22.6,20.4,30.20,East,95,0.0,1.1,91,0.00,,,0.00,0.00,VWS V14.01,2013-02-25 09:44:00,
2013-02-25 03:46:00,22.4,20.2,30.20,East,95,1.1,1.1,91,0.00,,,0.00,0.00,VWS V14.01,2013-02-25 09:46:00,
2013-02-25 03:48:00,22.4,20.2,30.20,East,95,1.1,2.2,91,0.00,,,0.00,0.00,VWS V14.01,2013-02-25 09:48:00,
2013-02-25 03:49:00,22.4,20.2,30.19,East,95,1.1,1.1,91,0.00,,,0.00,0.00,VWS V14.01,2013-02-25 09:49:00,
2013-02-25 03:51:00,22.4,20.2,30.19,East,95,0.0,2.2,91,0.00,,,0.00,0.00,VWS V14.01,2013-02-25 09:51:00,
2013-02-25 03:52:00,22.5,20.3,30.20,East,95,0.0,2.2,91,0.00,,,0.00,0.00,VWS V14.01,2013-02-25 09:52:00,
2013-02-25 03:53:00,22.6,20.6,30.19,East,95,0.0,2.2,92,0.00,,,0.00,0.00,VWS V14.01,2013-02-25 09:53:00,
2013-02-25 03:54:00,22.7,20.7,30.19,East,95,1.1,1.1,92,0.00,,,0.00,0.00,VWS V14.01,2013-02-25 09:54:00,
2013-02-25 03:56:00,22.8,20.6,30.19,East,95,2.2,2.2,91,0.00,,,0.00,0.00,VWS V14.01,2013-02-25 09:56:00,
2013-02-25 03:57:00,22.8,20.6,30.19,East,95,2.2,2.2,91,0.00,,,0.00,0.00,VWS V14.01,2013-02-25 09:57:00,
2013-02-25 03:59:00,22.8,20.6,30.19,East,95,0.0,2.2,91,0.00,,,0.00,0.00,VWS V14.01,2013-02-25 09:59:00,
2013-02-25 04:00:00,22.8,20.6,30.19,East,95,0.0,2.2,91,0.00,,,0.00,0.00,VWS V14.01,2013-02-25 10:00:00,
2013-02-25 04:02:00,22.9,20.7,30.19,East,95,2.2,2.2,91,0.00,,,0.00,0.00,VWS V14.01,2013-02-25 10:02:00,
2013-02-25 04:04:00,22.7,20.5,30.19,East,94,2.2,3.3,91,0.00,,,0.00,0.00,VWS V14.01,2013-02-25 10:04:00,
2013-02-25 04:05:00,22.7,20.5,30.19,East,94,1.1,3.3,91,0.00,,,0.00,0.00,VWS V14.01,2013-02-25 10:05:00,
2013-02-25 04:07:00,22.7,20.5,30.19,East,94,0.0,2.2,91,0.00,,,0.00,0.00,VWS V14.01,2013-02-25 10:07:00,
2013-02-25 04:10:00,22.8,20.6,30.20,East,94,0.0,1.1,91,0.00,,,0.00,0.00,VWS V14.01,2013-02-25 10:10:00,
2013-02-25 04:12:00,23.0,21.0,30.20,East,94,0.0,1.1,92,0.00,,,0.00,0.00,VWS V14.01,2013-02-25 10:12:00,
2013-02-25 04:13:00,22.9,20.7,30.20,East,94,0.0,1.1,91,0.00,,,0.00,0.00,VWS V14.01,2013-02-25 10:13:00,
2013-02-25 04:15:00,23.0,20.8,30.20,East,94,0.0,1.1,91,0.00,,,0.00,0.00,VWS V14.01,2013-02-25 10:15:00,
2013-02-25 04:16:00,23.0,20.8,30.20,East,94,0.0,1.1,91,0.00,,,0.00,0.00,VWS V14.01,2013-02-25 10:16:00,
2013-02-25 04:18:00,22.9,20.7,30.20,East,94,0.0,0.0,91,0.00,,,0.00,0.00,VWS V14.01,2013-02-25 10:18:00,
2013-02-25 04:19:00,22.7,20.2,30.20,East,94,0.0,0.0,90,0.00,,,0.00,0.00,VWS V14.01,2013-02-25 10:19:00,
2013-02-25 04:20:00,22.7,20.2,30.20,East,94,0.0,0.0,90,0.00,,,0.00,0.00,VWS V14.01,2013-02-25 10:20:00,
2013-02-25 04:21:00,22.6,20.4,30.20,East,94,1.1,1.1,91,0.00,,,0.00,0.00,VWS V14.01,2013-02-25 10:21:00,
2013-02-25 04:23:00,22.4,19.9,30.20,East,94,1.1,1.1,90,0.00,,,0.00,0.00,VWS V14.01,2013-02-25 10:23:00,
2013-02-25 04:25:00,22.2,20.0,30.20,East,94,0.0,1.1,91,0.00,,,0.00,0.00,VWS V14.01,2013-02-25 10:25:00,
2013-02-25 04:27:00,22.4,20.2,30.20,East,94,1.1,1.1,91,0.00,,,0.00,0.00,VWS V14.01,2013-02-25 10:27:00,
2013-02-25 04:29:00,22.4,20.2,30.20,East,94,1.1,1.1,91,0.00,,,0.00,0.00,VWS V14.01,2013-02-25 10:29:00,
2013-02-25 04:30:00,22.4,20.2,30.20,East,94,0.0,0.0,91,0.00,,,0.00,0.00,VWS V14.01,2013-02-25 10:30:00,
2013-02-25 04:31:00,22.4,20.2,30.20,East,94,0.0,0.0,91,0.00,,,0.00,0.00,VWS V14.01,2013-02-25 10:31:00,
2013-02-25 04:32:00,22.4,20.2,30.20,East,94,0.0,0.0,91,0.00,,,0.00,0.00,VWS V14.01,2013-02-25 10:32:00,
2013-02-25 04:34:00,22.2,20.0,30.20,East,94,0.0,1.1,91,0.00,,,0.00,0.00,VWS V14.01,2013-02-25 10:34:00,
2013-02-25 04:36:00,22.1,19.9,30.20,East,94,0.0,0.0,91,0.00,,,0.00,0.00,VWS V14.01,2013-02-25 10:36:00,
2013-02-25 04:37:00,22.1,19.9,30.20,East,94,0.0,0.0,91,0.00,,,0.00,0.00,VWS V14.01,2013-02-25 10:37:00,
2013-02-25 04:39:00,21.8,19.6,30.20,East,94,1.1,1.1,91,0.00,,,0.00,0.00,VWS V14.01,2013-02-25 10:39:00,
2013-02-25 04:41:00,21.8,19.6,30.20,East,94,0.0,2.2,91,0.00,,,0.00,0.00,VWS V14.01,2013-02-25 10:41:00,
2013-02-25 04:42:00,21.8,19.6,30.20,East,94,0.0,0.0,91,0.00,,,0.00,0.00,VWS V14.01,2013-02-25 10:42:00,
2013-02-25 04:43:00,21.8,19.6,30.20,East,94,0.0,0.0,91,0.00,,,0.00,0.00,VWS V14.01,2013-02-25 10:43:00,
2013-02-25 04:44:00,21.9,19.7,30.20,East,94,1.1,1.1,91,0.00,,,0.00,0.00,VWS V14.01,2013-02-25 10:44:00,
2013-02-25 04:46:00,21.9,19.9,30.20,East,94,1.1,1.1,92,0.00,,,0.00,0.00,VWS V14.01,2013-02-25 10:46:00,
2013-02-25 04:47:00,21.9,19.7,30.20,East,94,0.0,0.0,91,0.00,,,0.00,0.00,VWS V14.01,2013-02-25 10:47:00,
2013-02-25 04:48:00,21.8,19.6,30.20,East,94,0.0,0.0,91,0.00,,,0.00,0.00,VWS V14.01,2013-02-25 10:48:00,
2013-02-25 04:50:00,21.8,19.6,30.20,East,94,0.0,1.1,91,0.00,,,0.00,0.00,VWS V14.01,2013-02-25 10:50:00,
2013-02-25 04:51:00,21.9,19.9,30.20,East,94,0.0,1.1,92,0.00,,,0.00,0.00,VWS V14.01,2013-02-25 10:51:00,
2013-02-25 04:53:00,22.1,20.1,30.21,East,94,0.0,0.0,92,0.00,,,0.00,0.00,VWS V14.01,2013-02-25 10:53:00,
2013-02-25 04:55:00,22.0,20.0,30.21,East,94,0.0,0.0,92,0.00,,,0.00,0.00,VWS V14.01,2013-02-25 10:55:00,
2013-02-25 04:56:00,22.1,20.1,30.21,East,94,0.0,0.0,92,0.00,,,0.00,0.00,VWS V14.01,2013-02-25 10:56:00,
2013-02-25 04:58:00,22.2,20.2,30.21,East,94,0.0,0.0,92,0.00,,,0.00,0.00,VWS V14.01,2013-02-25 10:58:00,
2013-02-25 05:00:00,22.3,20.3,30.21,East,94,0.0,0.0,92,0.00,,,0.00,0.00,VWS V14.01,2013-02-25 11:00:00,
2013-02-25 05:02:00,22.2,20.2,30.21,East,94,0.0,0.0,92,0.00,,,0.00,0.00,VWS V14.01,2013-02-25 11:02:00,
2013-02-25 05:03:00,21.9,19.7,30.21,East,94,0.0,0.0,91,0.00,,,0.00,0.00,VWS V14.01,2013-02-25 11:03:00,
2013-02-25 05:04:00,21.8,19.6,30.21,East,94,0.0,0.0,91,0.00,,,0.00,0.00,VWS V14.01,2013-02-25 11:04:00,
2013-02-25 05:06:00,21.6,19.4,30.20,East,94,1.1,1.1,91,0.00,,,0.00,0.00,VWS V14.01,2013-02-25 11:06:00,
2013-02-25 05:07:00,21.6,19.4,30.21,East,94,1.1,2.2,91,0.00,,,0.00,0.00,VWS V14.01,2013-02-25 11:07:00,
2013-02-25 05:09:00,21.6,19.6,30.21,East,94,1.1,1.1,92,0.00,,,0.00,0.00,VWS V14.01,2013-02-25 11:09:00,
2013-02-25 05:11:00,21.7,19.7,30.21,East,94,1.1,1.1,92,0.00,,,0.00,0.00,VWS V14.01,2013-02-25 11:11:00,
2013-02-25 05:13:00,21.7,19.7,30.21,East,94,0.0,1.1,92,0.00,,,0.00,0.00,VWS V14.01,2013-02-25 11:13:00,
2013-02-25 05:14:00,21.8,19.8,30.21,East,94,1.1,2.2,92,0.00,,,0.00,0.00,VWS V14.01,2013-02-25 11:14:00,
2013-02-25 05:16:00,21.9,19.9,30.21,East,94,0.0,1.1,92,0.00,,,0.00,0.00,VWS V14.01,2013-02-25 11:16:00,
2013-02-25 05:18:00,22.0,20.0,30.21,East,94,1.1,1.1,92,0.00,,,0.00,0.00,VWS V14.01,2013-02-25 11:18:00,
2013-02-25 05:19:00,22.1,20.1,30.21,East,94,0.0,1.1,92,0.00,,,0.00,0.00,VWS V14.01,2013-02-25 11:19:00,
2013-02-25 05:21:00,21.8,19.8,30.22,East,98,1.1,1.1,92,0.00,,,0.00,0.00,VWS V14.01,2013-02-25 11:21:00,
2013-02-25 05:24:00,21.8,19.8,30.22,East,98,0.0,1.1,92,0.00,,,0.00,0.00,VWS V14.01,2013-02-25 11:24:00,
2013-02-25 05:27:00,21.8,19.8,30.22,East,98,0.0,0.0,92,0.00,,,0.00,0.00,VWS V14.01,2013-02-25 11:27:00,
2013-02-25 05:29:00,21.8,19.8,30.22,East,98,0.0,0.0,92,0.00,,,0.00,0.00,VWS V14.01,2013-02-25 11:29:00,
2013-02-25 05:30:00,21.8,19.8,30.22,East,98,0.0,0.0,92,0.00,,,0.00,0.00,VWS V14.01,2013-02-25 11:30:00,
2013-02-25 05:32:00,21.8,19.8,30.22,East,98,0.0,1.1,92,0.00,,,0.00,0.00,VWS V14.01,2013-02-25 11:32:00,
2013-02-25 05:34:00,21.8,19.8,30.22,East,98,0.0,1.1,92,0.00,,,0.00,0.00,VWS V14.01,2013-02-25 11:34:00,
2013-02-25 05:35:00,21.7,19.7,30.22,East,98,0.0,0.0,92,0.00,,,0.00,0.00,VWS V14.01,2013-02-25 11:35:00,
2013-02-25 05:37:00,21.7,19.7,30.22,East,98,0.0,1.1,92,0.00,,,0.00,0.00,VWS V14.01,2013-02-25 11:37:00,
2013-02-25 05:39:00,21.7,19.7,30.22,East,97,0.0,2.2,92,0.00,,,0.00,0.00,VWS V14.01,2013-02-25 11:39:00,
2013-02-25 05:40:00,21.8,19.8,30.22,East,97,1.1,2.2,92,0.00,,,0.00,0.00,VWS V14.01,2013-02-25 11:40:00,
2013-02-25 05:41:00,21.9,19.9,30.22,East,98,0.0,2.2,92,0.00,,,0.00,0.00,VWS V14.01,2013-02-25 11:41:00,
2013-02-25 05:42:00,22.0,20.0,30.22,East,98,0.0,1.1,92,0.00,,,0.00,0.00,VWS V14.01,2013-02-25 11:42:00,
2013-02-25 05:45:00,22.1,20.1,30.22,East,98,0.0,1.1,92,0.00,,,0.00,0.00,VWS V14.01,2013-02-25 11:45:00,
2013-02-25 05:46:00,22.1,20.1,30.22,East,98,0.0,2.2,92,0.00,,,0.00,0.00,VWS V14.01,2013-02-25 11:46:00,
2013-02-25 05:47:00,22.1,20.1,30.22,East,97,1.1,2.2,92,0.00,,,0.00,0.00,VWS V14.01,2013-02-25 11:47:00,
2013-02-25 05:48:00,22.2,20.2,30.22,East,97,1.1,1.1,92,0.00,,,0.00,0.00,VWS V14.01,2013-02-25 11:48:00,
2013-02-25 05:51:00,22.0,20.0,30.23,East,97,0.0,1.1,92,0.00,,,0.00,0.00,VWS V14.01,2013-02-25 11:51:00,
2013-02-25 05:53:00,22.0,20.0,30.23,East,97,0.0,1.1,92,0.00,,,0.00,0.00,VWS V14.01,2013-02-25 11:53:00,
2013-02-25 05:54:00,22.1,20.1,30.23,East,97,0.0,0.0,92,0.00,,,0.00,0.00,VWS V14.01,2013-02-25 11:54:00,
2013-02-25 05:56:00,22.1,20.1,30.23,East,97,1.1,1.1,92,0.00,,,0.00,0.00,VWS V14.01,2013-02-25 11:56:00,
2013-02-25 05:57:00,22.1,20.1,30.23,East,97,0.0,1.1,92,0.00,,,0.00,0.00,VWS V14.01,2013-02-25 11:57:00,
2013-02-25 05:58:00,22.0,20.0,30.23,East,97,0.0,0.0,92,0.00,,,0.00,0.00,VWS V14.01,2013-02-25 11:58:00,
2013-02-25 06:00:00,21.9,19.9,30.23,East,97,0.0,1.1,92,0.00,,,0.00,0.00,VWS V14.01,2013-02-25 12:00:00,
2013-02-25 06:04:00,21.7,19.7,30.23,East,95,0.0,1.1,92,0.00,,,0.00,0.00,VWS V14.01,2013-02-25 12:04:00,
2013-02-25 06:05:00,21.6,19.6,30.23,East,95,0.0,1.1,92,0.00,,,0.00,0.00,VWS V14.01,2013-02-25 12:05:00,
2013-02-25 06:09:00,21.6,19.6,30.23,East,95,0.0,0.0,92,0.00,,,0.00,0.00,VWS V14.01,2013-02-25 12:09:00,
2013-02-25 06:10:00,21.7,19.7,30.23,East,95,0.0,0.0,92,0.00,,,0.00,0.00,VWS V14.01,2013-02-25 12:10:00,
2013-02-25 06:11:00,21.7,19.7,30.23,East,95,0.0,0.0,92,0.00,,,0.00,0.00,VWS V14.01,2013-02-25 12:11:00,
2013-02-25 06:14:00,21.8,19.8,30.23,East,95,0.0,1.1,92,0.00,,,0.00,0.00,VWS V14.01,2013-02-25 12:14:00,
2013-02-25 06:15:00,21.8,19.8,30.23,East,95,0.0,2.2,92,0.00,,,0.00,0.00,VWS V14.01,2013-02-25 12:15:00,
2013-02-25 06:16:00,21.8,19.8,30.23,East,95,0.0,1.1,92,0.00,,,0.00,0.00,VWS V14.01,2013-02-25 12:16:00,
2013-02-25 06:17:00,21.7,19.7,30.23,East,95,0.0,0.0,92,0.00,,,0.00,0.00,VWS V14.01,2013-02-25 12:17:00,
2013-02-25 06:19:00,21.7,19.7,30.23,East,95,0.0,0.0,92,0.00,,,0.00,0.00,VWS V14.01,2013-02-25 12:19:00,
2013-02-25 06:20:00,21.7,19.7,30.23,East,95,0.0,0.0,92,0.00,,,0.00,0.00,VWS V14.01,2013-02-25 12:20:00,
2013-02-25 06:21:00,21.6,19.6,30.23,East,95,0.0,0.0,92,0.00,,,0.00,0.00,VWS V14.01,2013-02-25 12:21:00,
2013-02-25 06:22:00,21.6,19.6,30.24,East,95,0.0,0.0,92,0.00,,,0.00,0.00,VWS V14.01,2013-02-25 12:22:00,
2013-02-25 06:25:00,21.7,19.7,30.24,East,95,1.1,1.1,92,0.00,,,0.00,0.00,VWS V14.01,2013-02-25 12:25:00,
2013-02-25 06:27:00,21.5,19.5,30.23,East,95,0.0,0.0,92,0.00,,,0.00,0.00,VWS V14.01,2013-02-25 12:27:00,
2013-02-25 06:28:00,21.4,19.4,30.23,East,95,1.1,2.2,92,0.00,,,0.00,5.00,VWS V14.01,2013-02-25 12:28:00,
2013-02-25 06:30:00,21.4,19.4,30.23,East,95,1.1,2.2,92,0.00,,,0.00,5.00,VWS V14.01,2013-02-25 12:30:00,
2013-02-25 06:31:00,21.4,19.4,30.23,East,95,0.0,2.2,92,0.00,,,0.00,5.00,VWS V14.01,2013-02-25 12:31:00,
2013-02-25 06:32:00,21.3,19.3,30.23,East,95,1.1,1.1,92,0.00,,,0.00,5.00,VWS V14.01,2013-02-25 12:32:00,
2013-02-25 06:33:00,21.3,19.3,30.23,East,95,0.0,1.1,92,0.00,,,0.00,5.00,VWS V14.01,2013-02-25 12:33:00,
2013-02-25 06:35:00,21.3,19.3,30.23,East,95,1.1,3.3,92,0.00,,,0.00,7.00,VWS V14.01,2013-02-25 12:35:00,
2013-02-25 06:36:00,21.3,19.3,30.23,East,95,1.1,2.2,92,0.00,,,0.00,7.00,VWS V14.01,2013-02-25 12:36:00,
2013-02-25 06:38:00,21.4,19.4,30.23,East,95,2.2,2.2,92,0.00,,,0.00,7.00,VWS V14.01,2013-02-25 12:38:00,
2013-02-25 06:39:00,21.6,19.6,30.23,East,95,1.1,3.3,92,0.00,,,0.00,9.00,VWS V14.01,2013-02-25 12:39:00,
2013-02-25 06:40:00,21.6,19.6,30.23,East,95,2.2,2.2,92,0.00,,,0.00,9.00,VWS V14.01,2013-02-25 12:40:00,
2013-02-25 06:42:00,21.6,19.6,30.23,East,95,0.0,1.1,92,0.00,,,0.00,11.00,VWS V14.01,2013-02-25 12:42:00,
2013-02-25 06:43:00,21.8,19.8,30.23,East,95,0.0,1.1,92,0.00,,,0.00,11.00,VWS V14.01,2013-02-25 12:43:00,
2013-02-25 06:44:00,21.9,19.9,30.22,East,95,2.2,3.3,92,0.00,,,0.00,12.00,VWS V14.01,2013-02-25 12:44:00,
2013-02-25 06:46:00,22.2,20.2,30.22,East,95,1.1,2.2,92,0.00,,,0.00,12.00,VWS V14.01,2013-02-25 12:46:00,
2013-02-25 06:49:00,22.3,20.3,30.23,East,95,2.2,2.2,92,0.00,,,0.00,14.00,VWS V14.01,2013-02-25 12:49:00,
2013-02-25 06:51:00,22.4,20.2,30.22,East,95,2.2,2.2,91,0.00,,,0.00,16.00,VWS V14.01,2013-02-25 12:51:00,
2013-02-25 06:52:00,22.3,20.1,30.22,East,95,0.0,2.2,91,0.00,,,0.00,16.00,VWS V14.01,2013-02-25 12:52:00,
2013-02-25 06:55:00,22.5,20.3,30.22,East,95,0.0,2.2,91,0.00,,,0.00,18.00,VWS V14.01,2013-02-25 12:55:00,
2013-02-25 06:56:00,22.6,20.4,30.22,East,95,2.2,3.3,91,0.00,,,0.00,18.00,VWS V14.01,2013-02-25 12:56:00,
2013-02-25 06:57:00,22.6,20.4,30.22,East,95,1.1,1.1,91,0.00,,,0.00,18.00,VWS V14.01,2013-02-25 12:57:00,
2013-02-25 07:00:00,22.9,20.7,30.22,East,96,1.1,1.1,91,0.00,,,0.00,25.00,VWS V14.01,2013-02-25 13:00:00,
2013-02-25 07:01:00,22.9,20.4,30.22,East,96,1.1,2.2,90,0.00,,,0.00,25.00,VWS V14.01,2013-02-25 13:01:00,
2013-02-25 07:04:00,23.0,20.5,30.21,East,94,3.3,3.3,90,0.00,,,0.00,26.00,VWS V14.01,2013-02-25 13:04:00,
2013-02-25 07:06:00,23.1,20.6,30.22,East,94,2.2,2.2,90,0.00,,,0.00,33.00,VWS V14.01,2013-02-25 13:06:00,
2013-02-25 07:07:00,23.2,20.7,30.22,East,92,0.0,6.6,90,0.00,,,0.00,37.00,VWS V14.01,2013-02-25 13:07:00,
2013-02-25 07:09:00,23.6,21.4,30.22,ESE,109,4.4,4.4,91,0.00,,,0.00,49.00,VWS V14.01,2013-02-25 13:09:00,
2013-02-25 07:12:00,24.0,21.5,30.22,ESE,110,3.3,3.3,90,0.00,,,0.00,60.00,VWS V14.01,2013-02-25 13:12:00,
2013-02-25 07:15:00,24.5,21.7,30.22,East,99,2.2,3.3,89,0.00,,,0.00,70.00,VWS V14.01,2013-02-25 13:15:00,
2013-02-25 07:17:00,24.7,21.9,30.22,ESE,104,2.2,4.4,89,0.00,,,0.00,77.00,VWS V14.01,2013-02-25 13:17:00,
2013-02-25 07:18:00,24.8,22.0,30.22,ESE,104,0.0,2.2,89,0.00,,,0.00,77.00,VWS V14.01,2013-02-25 13:18:00,
2013-02-25 07:20:00,25.1,22.3,30.22,ESE,104,0.0,2.2,89,0.00,,,0.00,84.00,VWS V14.01,2013-02-25 13:20:00,
2013-02-25 07:22:00,25.5,22.7,30.22,ESE,104,0.0,0.0,89,0.00,,,0.00,93.00,VWS V14.01,2013-02-25 13:22:00,
2013-02-25 07:23:00,25.6,22.5,30.22,ESE,104,1.1,2.2,88,0.00,,,0.00,95.00,VWS V14.01,2013-02-25 13:23:00,
2013-02-25 07:24:00,25.7,22.6,30.22,ESE,102,1.1,2.2,88,0.00,,,0.00,100.00,VWS V14.01,2013-02-25 13:24:00,
2013-02-25 07:25:00,25.8,22.7,30.22,East,99,1.1,1.1,88,0.00,,,0.00,100.00,VWS V14.01,2013-02-25 13:25:00,
2013-02-25 07:27:00,26.1,23.0,30.22,East,97,1.1,2.2,88,0.00,,,0.00,109.00,VWS V14.01,2013-02-25 13:27:00,
2013-02-25 07:30:00,26.3,23.2,30.21,East,94,2.2,5.5,88,0.00,,,0.00,120.00,VWS V14.01,2013-02-25 13:30:00,
2013-02-25 07:31:00,26.5,23.2,30.21,East,93,3.3,3.3,87,0.00,,,0.00,125.00,VWS V14.01,2013-02-25 13:31:00,
2013-02-25 07:32:00,26.5,23.2,30.21,East,91,5.5,5.5,87,0.00,,,0.00,128.00,VWS V14.01,2013-02-25 13:32:00,
2013-02-25 07:35:00,26.7,23.4,30.21,East,89,2.2,3.3,87,0.00,,,0.00,127.00,VWS V14.01,2013-02-25 13:35:00,
2013-02-25 07:37:00,26.9,23.6,30.21,East,87,1.1,2.2,87,0.00,,,0.00,142.00,VWS V14.01,2013-02-25 13:37:00,
2013-02-25 07:40:00,27.1,23.8,30.21,East,87,3.3,3.3,87,0.00,,,0.00,155.00,VWS V14.01,2013-02-25 13:40:00,
2013-02-25 07:42:00,27.2,23.6,30.21,East,90,1.1,1.1,86,0.00,,,0.00,162.00,VWS V14.01,2013-02-25 13:42:00,
2013-02-25 07:43:00,27.3,23.7,30.21,East,80,2.2,5.5,86,0.00,,,0.00,163.00,VWS V14.01,2013-02-25 13:43:00,
2013-02-25 07:45:00,27.4,23.8,30.21,East,79,3.3,3.3,86,0.00,,,0.00,172.00,VWS V14.01,2013-02-25 13:45:00,
2013-02-25 07:47:00,27.5,23.9,30.21,East,87,1.1,1.1,86,0.00,,,0.00,178.00,VWS V14.01,2013-02-25 13:47:00,
2013-02-25 07:48:00,27.6,24.0,30.21,East,88,2.2,3.3,86,0.00,,,0.00,181.00,VWS V14.01,2013-02-25 13:48:00,
2013-02-25 07:51:00,27.9,24.3,30.21,ESE,102,1.1,2.2,86,0.00,,,0.00,190.00,VWS V14.01,2013-02-25 13:51:00,
2013-02-25 07:52:00,28.0,24.4,30.21,ESE,109,4.4,4.4,86,0.00,,,0.00,195.00,VWS V14.01,2013-02-25 13:52:00,
2013-02-25 07:53:00,28.1,24.5,30.21,East,91,5.5,5.5,86,0.00,,,0.00,197.00,VWS V14.01,2013-02-25 13:53:00,
2013-02-25 07:54:00,28.2,24.6,30.21,East,95,1.1,2.2,86,0.00,,,0.00,199.00,VWS V14.01,2013-02-25 13:54:00,
2013-02-25 07:56:00,28.4,24.5,30.21,East,96,2.2,5.5,85,0.00,,,0.00,206.00,VWS V14.01,2013-02-25 13:56:00,
2013-02-25 07:57:00,28.5,24.6,30.20,ESE,121,2.2,3.3,85,0.00,,,0.00,207.00,VWS V14.01,2013-02-25 13:57:00,
2013-02-25 07:59:00,28.5,24.6,30.20,ESE,119,0.0,1.1,85,0.00,,,0.00,214.00,VWS V14.01,2013-02-25 13:59:00,
2013-02-25 08:02:00,28.7,24.8,30.20,East,89,5.5,5.5,85,0.00,,,0.00,225.00,VWS V14.01,2013-02-25 14:02:00,
2013-02-25 08:03:00,28.8,24.9,30.20,East,95,5.5,5.5,85,0.00,,,0.00,225.00,VWS V14.01,2013-02-25 14:03:00,
2013-02-25 08:04:00,28.9,25.0,30.20,ESE,111,1.1,4.4,85,0.00,,,0.00,229.00,VWS V14.01,2013-02-25 14:04:00,
2013-02-25 08:08:00,29.2,25.3,30.20,ESE,103,2.2,9.9,85,0.00,,,0.00,239.00,VWS V14.01,2013-02-25 14:08:00,
2013-02-25 08:10:00,29.3,25.4,30.20,ESE,117,7.7,7.7,85,0.00,,,0.00,243.00,VWS V14.01,2013-02-25 14:10:00,
2013-02-25 08:13:00,29.4,25.2,30.20,ESE,118,1.1,5.5,84,0.00,,,0.00,255.00,VWS V14.01,2013-02-25 14:13:00,
2013-02-25 08:14:00,29.5,25.6,30.20,East,96,3.3,6.6,85,0.00,,,0.00,260.00,VWS V14.01,2013-02-25 14:14:00,
2013-02-25 08:15:00,29.5,25.3,30.20,East,79,3.3,8.8,84,0.00,,,0.00,260.00,VWS V14.01,2013-02-25 14:15:00,
2013-02-25 08:16:00,29.5,25.3,30.19,ESE,111,8.8,9.9,84,0.00,,,0.00,265.00,VWS V14.01,2013-02-25 14:16:00,
2013-02-25 08:18:00,29.7,25.5,30.20,ESE,106,4.4,7.7,84,0.00,,,0.00,272.00,VWS V14.01,2013-02-25 14:18:00,
2013-02-25 08:19:00,29.7,25.5,30.20,SE,129,3.3,4.4,84,0.00,,,0.00,279.00,VWS V14.01,2013-02-25 14:19:00,
2013-02-25 08:20:00,29.8,25.6,30.20,East,94,3.3,5.5,84,0.00,,,0.00,281.00,VWS V14.01,2013-02-25 14:20:00,
2013-02-25 08:22:00,29.9,25.7,30.19,ESE,122,8.8,8.8,84,0.00,,,0.00,288.00,VWS V14.01,2013-02-25 14:22:00,
2013-02-25 08:24:00,30.0,25.8,30.20,SE,131,4.4,9.9,84,0.00,,,0.00,295.00,VWS V14.01,2013-02-25 14:24:00,
2013-02-25 08:25:00,30.1,26.1,30.20,ESE,112,9.9,9.9,85,0.00,,,0.00,297.00,VWS V14.01,2013-02-25 14:25:00,
2013-02-25 08:28:00,30.4,26.4,30.20,ESE,118,5.5,5.5,85,0.00,,,0.00,318.00,VWS V14.01,2013-02-25 14:28:00,
2013-02-25 08:29:00,30.5,26.2,30.20,ESE,112,5.5,7.7,84,0.00,,,0.00,323.00,VWS V14.01,2013-02-25 14:29:00,
2013-02-25 08:30:00,30.6,26.6,30.20,East,99,7.7,8.8,85,0.00,,,0.00,334.00,VWS V14.01,2013-02-25 14:30:00,
2013-02-25 08:31:00,30.7,26.5,30.20,ESE,108,4.4,8.8,84,0.00,,,0.00,338.00,VWS V14.01,2013-02-25 14:31:00,
2013-02-25 08:33:00,30.9,26.6,30.20,ESE,111,3.3,7.7,84,0.00,,,0.00,338.00,VWS V14.01,2013-02-25 14:33:00,
2013-02-25 08:34:00,31.0,26.7,30.20,ESE,110,3.3,3.3,84,0.00,,,0.00,338.00,VWS V14.01,2013-02-25 14:34:00,
2013-02-25 08:35:00,31.1,26.8,30.20,ESE,111,1.1,1.1,84,0.00,,,0.00,336.00,VWS V14.01,2013-02-25 14:35:00,
2013-02-25 08:36:00,31.2,26.9,30.20,ESE,111,3.3,3.3,84,0.00,,,0.00,336.00,VWS V14.01,2013-02-25 14:36:00,
2013-02-25 08:38:00,31.2,26.6,30.20,ESE,103,2.2,7.7,83,0.00,,,0.00,341.00,VWS V14.01,2013-02-25 14:38:00,
2013-02-25 08:39:00,31.2,26.9,30.20,ESE,107,5.5,7.7,84,0.00,,,0.00,345.00,VWS V14.01,2013-02-25 14:39:00,
2013-02-25 08:40:00,31.3,26.8,30.20,ESE,112,5.5,7.7,83,0.00,,,0.00,348.00,VWS V14.01,2013-02-25 14:40:00,
2013-02-25 08:41:00,31.4,27.1,30.20,ESE,109,5.5,7.7,84,0.00,,,0.00,348.00,VWS V14.01,2013-02-25 14:41:00,
2013-02-25 08:43:00,31.5,26.9,30.20,ESE,109,5.5,5.5,83,0.00,,,0.00,355.00,VWS V14.01,2013-02-25 14:43:00,
2013-02-25 08:46:00,31.9,27.3,30.20,ESE,108,8.8,8.8,83,0.00,,,0.00,360.00,VWS V14.01,2013-02-25 14:46:00,
2013-02-25 08:47:00,32.0,27.4,30.20,SE,131,5.5,8.8,83,0.00,,,0.00,364.00,VWS V14.01,2013-02-25 14:47:00,
2013-02-25 08:48:00,32.1,27.5,30.20,East,89,3.3,7.7,83,0.00,,,0.00,366.00,VWS V14.01,2013-02-25 14:48:00,
2013-02-25 08:51:00,32.1,27.2,30.20,ESE,114,5.5,7.7,82,0.00,,,0.00,376.00,VWS V14.01,2013-02-25 14:51:00,
2013-02-25 08:52:00,32.3,27.7,30.20,ESE,110,7.7,8.8,83,0.00,,,0.00,378.00,VWS V14.01,2013-02-25 14:52:00,
2013-02-25 08:54:00,32.5,27.9,30.20,East,97,5.5,5.5,83,0.00,,,0.00,385.00,VWS V14.01,2013-02-25 14:54:00,
2013-02-25 08:56:00,32.5,27.6,30.20,East,97,7.7,8.8,82,0.00,,,0.00,390.00,VWS V14.01,2013-02-25 14:56:00,
2013-02-25 08:58:00,32.7,27.8,30.20,SE,133,6.6,7.7,82,0.00,,,0.00,396.00,VWS V14.01,2013-02-25 14:58:00,
2013-02-25 08:59:00,32.9,28.0,30.20,SE,127,6.6,6.6,82,0.00,,,0.00,399.00,VWS V14.01,2013-02-25 14:59:00,
2013-02-25 09:01:00,33.0,28.1,30.21,ESE,108,5.5,7.7,82,0.00,,,0.00,392.00,VWS V14.01,2013-02-25 15:01:00,
2013-02-25 09:03:00,33.1,28.2,30.21,ESE,117,4.4,5.5,82,0.00,,,0.00,408.00,VWS V14.01,2013-02-25 15:03:00,
2013-02-25 09:05:00,33.2,28.0,30.21,ESE,123,7.7,7.7,81,0.00,,,0.00,411.00,VWS V14.01,2013-02-25 15:05:00,
2013-02-25 09:06:00,33.3,28.1,30.21,SE,134,4.4,7.7,81,0.00,,,0.00,413.00,VWS V14.01,2013-02-25 15:06:00,
2013-02-25 09:07:00,33.3,28.1,30.21,SE,145,5.5,7.7,81,0.00,,,0.00,417.00,VWS V14.01,2013-02-25 15:07:00,
2013-02-25 09:08:00,33.4,28.2,30.21,SE,127,5.5,7.7,81,0.00,,,0.00,417.00,VWS V14.01,2013-02-25 15:08:00,
2013-02-25 09:11:00,33.5,28.3,30.21,ESE,112,5.5,7.7,81,0.00,,,0.00,424.00,VWS V14.01,2013-02-25 15:11:00,
2013-02-25 09:12:00,33.5,28.3,30.21,ESE,108,2.2,5.5,81,0.00,,,0.00,427.00,VWS V14.01,2013-02-25 15:12:00,
2013-02-25 09:13:00,33.7,28.5,30.21,East,96,8.8,8.8,81,0.00,,,0.00,309.00,VWS V14.01,2013-02-25 15:13:00,
2013-02-25 09:17:00,33.7,28.2,30.21,SE,129,5.5,5.5,80,0.00,,,0.00,299.00,VWS V14.01,2013-02-25 15:17:00,
2013-02-25 09:18:00,33.8,28.6,30.21,ESE,110,5.5,5.5,81,0.00,,,0.00,91.00,VWS V14.01,2013-02-25 15:18:00,
2013-02-25 09:22:00,33.8,28.3,30.21,East,92,5.5,8.8,80,0.00,,,0.00,90.00,VWS V14.01,2013-02-25 15:22:00,
2013-02-25 09:23:00,33.8,28.3,30.21,ESE,108,4.4,5.5,80,0.00,,,0.00,100.00,VWS V14.01,2013-02-25 15:23:00,
2013-02-25 09:24:00,33.7,28.2,30.21,ENE,72,4.4,5.5,80,0.00,,,0.00,146.00,VWS V14.01,2013-02-25 15:24:00,
2013-02-25 09:27:00,33.8,28.6,30.20,East,100,3.3,9.9,81,0.00,,,0.00,308.00,VWS V14.01,2013-02-25 15:27:00,
2013-02-25 09:28:00,33.8,28.3,30.20,ESE,106,5.5,7.7,80,0.00,,,0.00,223.00,VWS V14.01,2013-02-25 15:28:00,
2013-02-25 09:30:00,33.9,28.7,30.20,ESE,104,5.5,5.5,81,0.00,,,0.00,100.00,VWS V14.01,2013-02-25 15:30:00,
2013-02-25 09:32:00,34.0,28.8,30.20,East,80,5.5,5.5,81,0.00,,,0.00,98.00,VWS V14.01,2013-02-25 15:32:00,
2013-02-25 09:33:00,34.0,28.5,30.20,ESE,117,5.5,5.5,80,0.00,,,0.00,114.00,VWS V14.01,2013-02-25 15:33:00,
2013-02-25 09:34:00,34.1,28.9,30.20,ENE,67,5.5,8.8,81,0.00,,,0.00,163.00,VWS V14.01,2013-02-25 15:34:00,
2013-02-25 09:36:00,34.0,28.5,30.20,ESE,106,3.3,5.5,80,0.00,,,0.00,128.00,VWS V14.01,2013-02-25 15:36:00,
2013-02-25 09:37:00,34.1,28.6,30.20,SE,131,5.5,5.5,80,0.00,,,0.00,109.00,VWS V14.01,2013-02-25 15:37:00,
2013-02-25 09:38:00,34.2,29.0,30.20,ESE,106,4.4,8.8,81,0.00,,,0.00,91.00,VWS V14.01,2013-02-25 15:38:00,
2013-02-25 09:39:00,34.2,28.7,30.20,East,100,8.8,9.9,80,0.00,,,0.00,91.00,VWS V14.01,2013-02-25 15:39:00,
2013-02-25 09:42:00,34.5,28.7,30.20,ESE,104,4.4,5.5,79,0.00,,,0.00,88.00,VWS V14.01,2013-02-25 15:42:00,
2013-02-25 09:43:00,34.6,28.8,30.20,ESE,104,5.5,7.7,79,0.00,,,0.00,88.00,VWS V14.01,2013-02-25 15:43:00,
2013-02-25 09:44:00,34.6,28.8,30.20,SE,137,4.4,8.8,79,0.00,,,0.00,91.00,VWS V14.01,2013-02-25 15:44:00,
2013-02-25 09:48:00,34.7,28.9,30.20,East,87,5.5,5.5,79,0.00,,,0.00,86.00,VWS V14.01,2013-02-25 15:48:00,
2013-02-25 09:49:00,34.6,28.5,30.20,East,95,7.7,7.7,78,0.00,,,0.00,91.00,VWS V14.01,2013-02-25 15:49:00,
2013-02-25 09:50:00,34.6,28.8,30.20,ENE,77,4.4,4.4,79,0.00,,,0.00,121.00,VWS V14.01,2013-02-25 15:50:00,
2013-02-25 09:53:00,34.7,28.9,30.20,ESE,122,8.8,8.8,79,0.00,,,0.00,483.00,VWS V14.01,2013-02-25 15:53:00,
2013-02-25 09:54:00,34.7,28.9,30.20,SE,125,6.6,8.8,79,0.00,,,0.00,492.00,VWS V14.01,2013-02-25 15:54:00,
2013-02-25 09:55:00,34.8,29.0,30.20,SE,125,5.5,6.6,79,0.00,,,0.00,490.00,VWS V14.01,2013-02-25 15:55:00,
2013-02-25 09:58:00,35.0,28.9,30.20,ESE,121,3.3,5.5,78,0.00,,,0.00,446.00,VWS V14.01,2013-02-25 15:58:00,
2013-02-25 10:00:00,35.0,28.9,30.20,SE,135,6.6,8.8,78,0.00,,,0.00,466.00,VWS V14.01,2013-02-25 16:00:00,
2013-02-25 10:03:00,35.1,28.9,30.20,SE,140,6.6,7.7,78,0.00,,,0.00,90.00,VWS V14.01,2013-02-25 16:03:00,
2013-02-25 10:04:00,35.2,28.7,30.20,SE,138,7.7,7.7,77,0.00,,,0.00,109.00,VWS V14.01,2013-02-25 16:04:00,
2013-02-25 10:06:00,35.4,29.2,30.20,SE,137,7.7,8.8,78,0.00,,,0.00,188.00,VWS V14.01,2013-02-25 16:06:00,
2013-02-25 10:08:00,35.7,29.5,30.20,ESE,122,8.8,8.8,78,0.00,,,0.00,102.00,VWS V14.01,2013-02-25 16:08:00,
2013-02-25 10:09:00,35.7,29.2,30.20,East,93,6.6,7.7,77,0.00,,,0.00,84.00,VWS V14.01,2013-02-25 16:09:00,
2013-02-25 10:11:00,35.7,29.5,30.19,ESE,120,7.7,11.0,78,0.00,,,0.00,81.00,VWS V14.01,2013-02-25 16:11:00,
2013-02-25 10:14:00,35.8,29.3,30.19,ENE,66,5.5,11.0,77,0.00,,,0.00,83.00,VWS V14.01,2013-02-25 16:14:00,
2013-02-25 10:19:00,35.8,29.3,30.19,East,99,5.5,11.0,77,0.00,,,0.00,83.00,VWS V14.01,2013-02-25 16:19:00,
2013-02-25 10:20:00,35.8,29.3,30.19,SE,131,6.6,6.6,77,0.00,,,0.00,102.00,VWS V14.01,2013-02-25 16:20:00,
2013-02-25 10:24:00,35.9,29.7,30.19,ESE,104,3.3,7.7,78,0.00,,,0.00,91.00,VWS V14.01,2013-02-25 16:24:00,
2013-02-25 10:28:00,35.8,29.3,30.19,SSE,156,6.6,9.9,77,0.00,,,0.00,88.00,VWS V14.01,2013-02-25 16:28:00,
2013-02-25 10:29:00,35.8,29.3,30.19,East,97,7.7,8.8,77,0.00,,,0.00,98.00,VWS V14.01,2013-02-25 16:29:00,
2013-02-25 10:30:00,35.9,29.7,30.19,SE,137,5.5,8.8,78,0.00,,,0.00,90.00,VWS V14.01,2013-02-25 16:30:00,
2013-02-25 10:33:00,36.2,29.7,30.19,SE,140,6.6,8.8,77,0.00,,,0.00,83.00,VWS V14.01,2013-02-25 16:33:00,
2013-02-25 10:35:00,36.1,29.6,30.18,ESE,104,8.8,8.8,77,0.00,,,0.00,84.00,VWS V14.01,2013-02-25 16:35:00,
2013-02-25 10:40:00,36.5,30.0,30.18,ESE,116,11.0,11.0,77,0.00,,,0.00,88.00,VWS V14.01,2013-02-25 16:40:00,
2013-02-25 10:42:00,36.7,30.2,30.18,ESE,116,5.5,12.1,77,0.00,,,0.00,84.00,VWS V14.01,2013-02-25 16:42:00,
2013-02-25 10:45:00,36.9,30.0,30.18,ENE,77,2.2,3.3,76,0.00,,,0.00,86.00,VWS V14.01,2013-02-25 16:45:00,
2013-02-25 10:46:00,36.8,30.0,30.18,ESE,104,7.7,7.7,76,0.00,,,0.00,86.00,VWS V14.01,2013-02-25 16:46:00,
2013-02-25 10:47:00,36.8,30.3,30.18,SE,124,6.6,8.8,77,0.00,,,0.00,86.00,VWS V14.01,2013-02-25 16:47:00,
2013-02-25 10:50:00,36.8,30.3,30.18,East,85,8.8,11.0,77,0.00,,,0.00,91.00,VWS V14.01,2013-02-25 16:50:00,
2013-02-25 10:51:00,36.9,30.4,30.18,ESE,112,8.8,9.9,77,0.00,,,0.00,118.00,VWS V14.01,2013-02-25 16:51:00,
2013-02-25 10:53:00,37.1,30.6,30.18,East,91,3.3,5.5,77,0.00,,,0.00,162.00,VWS V14.01,2013-02-25 16:53:00,
2013-02-25 10:55:00,37.3,30.4,30.18,ESE,118,4.4,5.5,76,0.00,,,0.00,102.00,VWS V14.01,2013-02-25 16:55:00,
2013-02-25 10:56:00,37.3,30.4,30.18,SE,136,3.3,5.5,76,0.00,,,0.00,102.00,VWS V14.01,2013-02-25 16:56:00,
2013-02-25 10:57:00,37.4,30.5,30.18,ESE,117,5.5,7.7,76,0.00,,,0.00,153.00,VWS V14.01,2013-02-25 16:57:00,
2013-02-25 11:00:00,37.5,30.6,30.19,ESE,115,9.9,9.9,76,0.00,,,0.00,464.00,VWS V14.01,2013-02-25 17:00:00,
2013-02-25 11:01:00,37.6,30.4,30.19,ESE,110,7.7,12.1,75,0.00,,,0.00,366.00,VWS V14.01,2013-02-25 17:01:00,
2013-02-25 11:03:00,37.7,30.2,30.19,SE,126,4.4,9.9,74,0.00,,,0.00,206.00,VWS V14.01,2013-02-25 17:03:00,
2013-02-25 11:06:00,37.8,30.3,30.19,ESE,116,3.3,7.7,74,0.00,,,0.00,255.00,VWS V14.01,2013-02-25 17:06:00,
2013-02-25 11:07:00,37.8,29.9,30.18,ESE,103,2.2,11.0,73,0.00,,,0.00,487.00,VWS V14.01,2013-02-25 17:07:00,
2013-02-25 11:08:00,37.9,30.0,30.18,ESE,118,5.5,13.2,73,0.00,,,0.00,584.00,VWS V14.01,2013-02-25 17:08:00,
2013-02-25 11:11:00,38.4,30.5,30.19,ESE,121,4.4,11.0,73,0.00,,,0.00,645.00,VWS V14.01,2013-02-25 17:11:00,
2013-02-25 11:12:00,38.6,30.4,30.19,East,87,5.5,9.9,72,0.00,,,0.00,645.00,VWS V14.01,2013-02-25 17:12:00,
2013-02-25 11:13:00,38.5,29.9,30.19,SE,132,9.9,11.0,71,0.00,,,0.00,649.00,VWS V14.01,2013-02-25 17:13:00,
2013-02-25 11:17:00,38.6,30.4,30.19,ESE,106,7.7,9.9,72,0.00,,,0.00,649.00,VWS V14.01,2013-02-25 17:17:00,
2013-02-25 11:18:00,38.5,29.9,30.19,ESE,107,7.7,8.8,71,0.00,,,0.00,649.00,VWS V14.01,2013-02-25 17:18:00,
2013-02-25 11:19:00,38.6,30.0,30.19,ESE,119,11.0,11.0,71,0.00,,,0.00,650.00,VWS V14.01,2013-02-25 17:19:00,
2013-02-25 11:22:00,38.8,29.9,30.19,SE,133,7.7,9.9,70,0.00,,,0.00,654.00,VWS V14.01,2013-02-25 17:22:00,
2013-02-25 11:23:00,38.7,29.8,30.19,SE,131,8.8,9.9,70,0.00,,,0.00,654.00,VWS V14.01,2013-02-25 17:23:00,
2013-02-25 11:24:00,38.7,29.8,30.19,ESE,109,7.7,11.0,70,0.00,,,0.00,657.00,VWS V14.01,2013-02-25 17:24:00,
2013-02-25 11:28:00,38.7,29.4,30.19,ESE,118,5.5,5.5,69,0.00,,,0.00,657.00,VWS V14.01,2013-02-25 17:28:00,
2013-02-25 11:29:00,38.7,30.1,30.19,ESE,120,8.8,8.8,71,0.00,,,0.00,659.00,VWS V14.01,2013-02-25 17:29:00,
2013-02-25 11:34:00,38.7,29.4,30.19,ESE,121,8.8,8.8,69,0.00,,,0.00,663.00,VWS V14.01,2013-02-25 17:34:00,
2013-02-25 11:35:00,38.7,29.4,30.19,SE,131,6.6,8.8,69,0.00,,,0.00,661.00,VWS V14.01,2013-02-25 17:35:00,
2013-02-25 11:39:00,38.9,29.6,30.19,East,96,3.3,3.3,69,0.00,,,0.00,666.00,VWS V14.01,2013-02-25 17:39:00,
2013-02-25 11:40:00,38.9,29.2,30.19,SE,139,5.5,5.5,68,0.00,,,0.00,626.00,VWS V14.01,2013-02-25 17:40:00,
2013-02-25 11:45:00,39.2,29.9,30.19,ESE,110,4.4,9.9,69,0.00,,,0.00,599.00,VWS V14.01,2013-02-25 17:45:00,
2013-02-25 11:46:00,39.2,29.2,30.19,ESE,121,11.0,11.0,67,0.00,,,0.00,608.00,VWS V14.01,2013-02-25 17:46:00,
2013-02-25 11:50:00,39.0,29.0,30.19,East,98,6.6,8.8,67,0.00,,,0.00,592.00,VWS V14.01,2013-02-25 17:50:00,
2013-02-25 11:51:00,39.1,29.5,30.19,South,183,4.4,9.9,68,0.00,,,0.00,592.00,VWS V14.01,2013-02-25 17:51:00,
2013-02-25 11:55:00,39.4,30.1,30.19,ESE,113,4.4,9.9,69,0.00,,,0.00,570.00,VWS V14.01,2013-02-25 17:55:00,
2013-02-25 11:56:00,39.4,30.1,30.19,SE,126,5.5,8.8,69,0.00,,,0.00,628.00,VWS V14.01,2013-02-25 17:56:00,
2013-02-25 12:00:00,39.2,29.9,30.19,ESE,121,8.8,8.8,69,0.00,,,0.00,629.00,VWS V14.01,2013-02-25 18:00:00,
2013-02-25 12:01:00,39.1,29.8,30.19,SE,128,2.2,8.8,69,0.00,,,0.00,606.00,VWS V14.01,2013-02-25 18:01:00,
2013-02-25 12:02:00,39.2,30.2,30.19,ESE,103,8.8,8.8,70,0.00,,,0.00,624.00,VWS V14.01,2013-02-25 18:02:00,
2013-02-25 12:06:00,39.2,29.9,30.18,ESE,111,11.0,11.0,69,0.00,,,0.00,677.00,VWS V14.01,2013-02-25 18:06:00,
2013-02-25 12:07:00,39.1,29.8,30.18,SE,143,7.7,9.9,69,0.00,,,0.00,677.00,VWS V14.01,2013-02-25 18:07:00,
2013-02-25 12:08:00,39.2,29.9,30.18,ESE,108,8.8,9.9,69,0.00,,,0.00,677.00,VWS V14.01,2013-02-25 18:08:00,
2013-02-25 12:11:00,39.6,30.6,30.18,SSE,158,5.5,13.2,70,0.00,,,0.00,599.00,VWS V14.01,2013-02-25 18:11:00,
2013-02-25 12:13:00,39.7,30.7,30.17,ESE,109,5.5,8.8,70,0.00,,,0.00,657.00,VWS V14.01,2013-02-25 18:13:00,
2013-02-25 12:17:00,39.8,30.5,30.18,East,100,3.3,9.9,69,0.00,,,0.00,606.00,VWS V14.01,2013-02-25 18:17:00,
2013-02-25 12:18:00,39.7,30.0,30.18,East,98,11.0,12.1,68,0.00,,,0.00,610.00,VWS V14.01,2013-02-25 18:18:00,
2013-02-25 12:19:00,39.8,30.5,30.18,ESE,113,3.3,8.8,69,0.00,,,0.00,582.00,VWS V14.01,2013-02-25 18:19:00,
2013-02-25 12:22:00,40.0,30.7,30.17,East,92,2.2,4.4,69,0.00,,,0.00,577.00,VWS V14.01,2013-02-25 18:22:00,
2013-02-25 12:23:00,40.0,30.7,30.17,SE,133,3.3,7.7,69,0.00,,,0.00,592.00,VWS V14.01,2013-02-25 18:23:00,
2013-02-25 12:24:00,40.0,30.7,30.17,ENE,75,8.8,9.9,69,0.00,,,0.00,613.00,VWS V14.01,2013-02-25 18:24:00,
2013-02-25 12:27:00,40.1,30.8,30.17,SE,125,6.6,11.0,69,0.00,,,0.00,592.00,VWS V14.01,2013-02-25 18:27:00,
2013-02-25 12:28:00,40.1,31.1,30.17,SE,131,1.1,5.5,70,0.00,,,0.00,584.00,VWS V14.01,2013-02-25 18:28:00,
2013-02-25 12:29:00,40.2,31.2,30.17,ESE,116,7.7,14.3,70,0.00,,,0.00,584.00,VWS V14.01,2013-02-25 18:29:00,
2013-02-25 12:32:00,40.1,30.8,30.17,NE,56,4.4,8.8,69,0.00,,,0.00,325.00,VWS V14.01,2013-02-25 18:32:00,
2013-02-25 12:33:00,40.1,30.4,30.17,SE,138,5.5,9.9,68,0.00,,,0.00,350.00,VWS V14.01,2013-02-25 18:33:00,
2013-02-25 12:34:00,40.1,30.4,30.17,ESE,105,7.7,8.8,68,0.00,,,0.00,381.00,VWS V14.01,2013-02-25 18:34:00,
2013-02-25 12:38:00,40.3,30.2,30.17,ESE,118,4.4,6.6,67,0.00,,,0.00,550.00,VWS V14.01,2013-02-25 18:38:00,
2013-02-25 12:39:00,40.4,30.7,30.16,SE,146,6.6,7.7,68,0.00,,,0.00,573.00,VWS V14.01,2013-02-25 18:39:00,
2013-02-25 12:40:00,40.4,30.7,30.16,ESE,106,9.9,9.9,68,0.00,,,0.00,540.00,VWS V14.01,2013-02-25 18:40:00,
2013-02-25 12:43:00,40.7,31.0,30.16,ESE,112,7.7,7.7,68,0.00,,,0.00,550.00,VWS V14.01,2013-02-25 18:43:00,
2013-02-25 12:45:00,40.7,31.0,30.16,ESE,120,9.9,9.9,68,0.00,,,0.00,589.00,VWS V14.01,2013-02-25 18:45:00,
2013-02-25 12:50:00,40.8,31.1,30.16,ESE,120,11.0,11.0,68,0.00,,,0.00,663.00,VWS V14.01,2013-02-25 18:50:00,
2013-02-25 12:51:00,41.0,32.0,30.16,East,100,9.9,11.0,70,0.00,,,0.00,636.00,VWS V14.01,2013-02-25 18:51:00,
2013-02-25 12:55:00,40.9,30.8,30.16,ESE,122,8.8,12.1,67,0.00,,,0.00,633.00,VWS V14.01,2013-02-25 18:55:00,
2013-02-25 12:56:00,40.9,30.8,30.16,ESE,106,5.5,12.1,67,0.00,,,0.00,591.00,VWS V14.01,2013-02-25 18:56:00,
2013-02-25 13:00:00,40.9,30.8,30.16,ENE,68,5.5,6.6,67,0.00,,,0.00,615.00,VWS V14.01,2013-02-25 19:00:00,
2013-02-25 13:02:00,40.7,30.6,30.15,ESE,122,5.5,7.7,67,0.00,,,0.00,554.00,VWS V14.01,2013-02-25 19:02:00,
2013-02-25 13:05:00,40.8,31.1,30.15,SE,125,5.5,9.9,68,0.00,,,0.00,555.00,VWS V14.01,2013-02-25 19:05:00,
2013-02-25 13:06:00,40.9,31.9,30.15,ESE,108,7.7,9.9,70,0.00,,,0.00,555.00,VWS V14.01,2013-02-25 19:06:00,
2013-02-25 13:07:00,41.0,31.3,30.15,East,88,6.6,14.3,68,0.00,,,0.00,564.00,VWS V14.01,2013-02-25 19:07:00,
2013-02-25 13:11:00,40.8,31.1,30.15,ESE,111,8.8,8.8,68,0.00,,,0.00,568.00,VWS V14.01,2013-02-25 19:11:00,
2013-02-25 13:12:00,40.8,31.1,30.15,SE,139,2.2,4.4,68,0.00,,,0.00,424.00,VWS V14.01,2013-02-25 19:12:00,
2013-02-25 13:13:00,40.8,31.4,30.15,SE,129,3.3,4.4,69,0.00,,,0.00,482.00,VWS V14.01,2013-02-25 19:13:00,
2013-02-25 13:16:00,40.9,30.8,30.14,ESE,110,4.4,4.4,67,0.00,,,0.00,316.00,VWS V14.01,2013-02-25 19:16:00,
2013-02-25 13:17:00,40.9,31.2,30.14,East,101,2.2,5.5,68,0.00,,,0.00,316.00,VWS V14.01,2013-02-25 19:17:00,
2013-02-25 13:18:00,40.9,31.2,30.14,ESE,123,3.3,5.5,68,0.00,,,0.00,315.00,VWS V14.01,2013-02-25 19:18:00,
2013-02-25 13:19:00,40.9,31.2,30.14,ESE,118,8.8,9.9,68,0.00,,,0.00,325.00,VWS V14.01,2013-02-25 19:19:00,
2013-02-25 13:22:00,41.0,31.3,30.14,ESE,108,8.8,9.9,68,0.00,,,0.00,330.00,VWS V14.01,2013-02-25 19:22:00,
2013-02-25 13:23:00,41.0,31.3,30.14,ESE,114,7.7,8.8,68,0.00,,,0.00,390.00,VWS V14.01,2013-02-25 19:23:00,
2013-02-25 13:24:00,41.1,31.7,30.14,ESE,122,4.4,8.8,69,0.00,,,0.00,487.00,VWS V14.01,2013-02-25 19:24:00,
2013-02-25 13:27:00,41.2,31.1,30.14,East,91,5.5,7.7,67,0.00,,,0.00,594.00,VWS V14.01,2013-02-25 19:27:00,
2013-02-25 13:28:00,41.2,31.1,30.14,ESE,112,5.5,7.7,67,0.00,,,0.00,594.00,VWS V14.01,2013-02-25 19:28:00,
2013-02-25 13:30:00,41.4,31.6,30.14,ESE,120,11.0,14.3,68,0.00,,,0.00,533.00,VWS V14.01,2013-02-25 19:30:00,
2013-02-25 13:33:00,41.5,31.4,30.13,SE,128,4.4,8.8,67,0.00,,,0.00,573.00,VWS V14.01,2013-02-25 19:33:00,
2013-02-25 13:34:00,41.5,31.0,30.13,East,79,8.8,8.8,66,0.00,,,0.00,545.00,VWS V14.01,2013-02-25 19:34:00,
2013-02-25 13:35:00,41.5,31.0,30.13,ENE,75,4.4,12.1,66,0.00,,,0.00,519.00,VWS V14.01,2013-02-25 19:35:00,
2013-02-25 13:38:00,41.3,30.4,30.13,East,98,8.8,11.0,65,0.00,,,0.00,559.00,VWS V14.01,2013-02-25 19:38:00,
2013-02-25 13:39:00,41.3,30.8,30.13,SE,142,4.4,9.9,66,0.00,,,0.00,555.00,VWS V14.01,2013-02-25 19:39:00,
2013-02-25 13:42:00,41.5,31.4,30.13,East,81,6.6,11.0,67,0.00,,,0.00,545.00,VWS V14.01,2013-02-25 19:42:00,
2013-02-25 13:43:00,41.5,31.4,30.13,ESE,121,5.5,6.6,67,0.00,,,0.00,578.00,VWS V14.01,2013-02-25 19:43:00,
2013-02-25 13:44:00,41.4,30.5,30.13,SE,127,8.8,9.9,65,0.00,,,0.00,563.00,VWS V14.01,2013-02-25 19:44:00,
2013-02-25 13:47:00,41.5,31.0,30.13,ENE,66,9.9,9.9,66,0.00,,,0.00,482.00,VWS V14.01,2013-02-25 19:47:00,
2013-02-25 13:48:00,41.6,31.1,30.12,ESE,107,9.9,9.9,66,0.00,,,0.00,461.00,VWS V14.01,2013-02-25 19:48:00,
2013-02-25 13:49:00,41.6,31.1,30.12,East,95,8.8,9.9,66,0.00,,,0.00,415.00,VWS V14.01,2013-02-25 19:49:00,
2013-02-25 13:50:00,41.7,31.2,30.12,ESE,116,3.3,8.8,66,0.00,,,0.00,415.00,VWS V14.01,2013-02-25 19:50:00,
2013-02-25 13:53:00,41.8,31.7,30.12,ESE,110,8.8,8.8,67,0.00,,,0.00,369.00,VWS V14.01,2013-02-25 19:53:00,
2013-02-25 13:54:00,41.8,31.7,30.12,ESE,117,7.7,9.9,67,0.00,,,0.00,322.00,VWS V14.01,2013-02-25 19:54:00,
2013-02-25 13:55:00,41.8,31.3,30.12,ESE,116,9.9,9.9,66,0.00,,,0.00,322.00,VWS V14.01,2013-02-25 19:55:00,
2013-02-25 13:58:00,41.5,31.0,30.12,ESE,110,2.2,4.4,66,0.00,,,0.00,526.00,VWS V14.01,2013-02-25 19:58:00,
2013-02-25 14:00:00,41.6,31.1,30.12,ESE,118,9.9,11.0,66,0.00,,,0.00,520.00,VWS V14.01,2013-02-25 20:00:00,
2013-02-25 14:04:00,42.1,31.2,30.12,ESE,123,7.7,8.8,65,0.00,,,0.00,561.00,VWS V14.01,2013-02-25 20:04:00,
2013-02-25 14:05:00,42.0,31.1,30.11,East,86,3.3,13.2,65,0.00,,,0.00,559.00,VWS V14.01,2013-02-25 20:05:00,
2013-02-25 14:06:00,42.0,31.1,30.11,East,95,6.6,7.7,65,0.00,,,0.00,557.00,VWS V14.01,2013-02-25 20:06:00,
2013-02-25 14:09:00,42.0,31.5,30.11,SE,146,11.0,13.2,66,0.00,,,0.00,548.00,VWS V14.01,2013-02-25 20:09:00,
2013-02-25 14:11:00,41.9,31.8,30.12,East,89,6.6,14.3,67,0.00,,,0.00,541.00,VWS V14.01,2013-02-25 20:11:00,
2013-02-25 14:14:00,42.0,31.9,30.11,East,89,8.8,11.0,67,0.00,,,0.00,541.00,VWS V14.01,2013-02-25 20:14:00,
2013-02-25 14:17:00,42.2,31.7,30.11,ENE,73,7.7,8.8,66,0.00,,,0.00,524.00,VWS V14.01,2013-02-25 20:17:00,
2013-02-25 14:19:00,42.0,31.1,30.11,SE,127,4.4,7.7,65,0.00,,,0.00,520.00,VWS V14.01,2013-02-25 20:19:00,
2013-02-25 14:22:00,41.9,31.4,30.11,ESE,109,7.7,9.9,66,0.00,,,0.00,457.00,VWS V14.01,2013-02-25 20:22:00,
2013-02-25 14:23:00,42.0,31.5,30.12,SE,127,7.7,8.8,66,0.00,,,0.00,480.00,VWS V14.01,2013-02-25 20:23:00,
2013-02-25 14:24:00,42.0,31.5,30.12,East,89,7.7,8.8,66,0.00,,,0.00,497.00,VWS V14.01,2013-02-25 20:24:00,
2013-02-25 14:25:00,41.9,31.0,30.12,ESE,115,9.9,9.9,65,0.00,,,0.00,489.00,VWS V14.01,2013-02-25 20:25:00,
2013-02-25 14:27:00,42.0,31.5,30.12,ESE,114,4.4,9.9,66,0.00,,,0.00,480.00,VWS V14.01,2013-02-25 20:27:00,
2013-02-25 14:29:00,41.8,31.3,30.12,ESE,115,7.7,7.7,66,0.00,,,0.00,475.00,VWS V14.01,2013-02-25 20:29:00,
2013-02-25 14:30:00,41.8,31.3,30.12,ESE,112,5.5,5.5,66,0.00,,,0.00,471.00,VWS V14.01,2013-02-25 20:30:00,
2013-02-25 14:33:00,41.9,31.4,30.12,NE,39,5.5,6.6,66,0.00,,,0.00,422.00,VWS V14.01,2013-02-25 20:33:00,
2013-02-25 14:34:00,41.8,30.9,30.12,ENE,61,3.3,4.4,65,0.00,,,0.00,401.00,VWS V14.01,2013-02-25 20:34:00,
2013-02-25 14:35:00,41.8,31.3,30.12,ESE,122,7.7,9.9,66,0.00,,,0.00,369.00,VWS V14.01,2013-02-25 20:35:00,
2013-02-25 14:39:00,42.2,31.3,30.12,ENE,77,8.8,8.8,65,0.00,,,0.00,360.00,VWS V14.01,2013-02-25 20:39:00,
2013-02-25 14:40:00,42.2,31.3,30.12,East,91,7.7,7.7,65,0.00,,,0.00,338.00,VWS V14.01,2013-02-25 20:40:00,
2013-02-25 14:41:00,42.2,31.3,30.12,ESE,118,1.1,7.7,65,0.00,,,0.00,272.00,VWS V14.01,2013-02-25 20:41:00,
2013-02-25 14:44:00,42.2,31.7,30.12,ESE,112,5.5,11.0,66,0.00,,,0.00,230.00,VWS V14.01,2013-02-25 20:44:00,
2013-02-25 14:45:00,42.3,31.8,30.12,ESE,122,4.4,5.5,66,0.00,,,0.00,169.00,VWS V14.01,2013-02-25 20:45:00,
2013-02-25 14:47:00,42.3,31.8,30.12,ESE,110,5.5,7.7,66,0.00,,,0.00,142.00,VWS V14.01,2013-02-25 20:47:00,
2013-02-25 14:49:00,42.1,31.6,30.12,SE,128,3.3,4.4,66,0.00,,,0.00,130.00,VWS V14.01,2013-02-25 20:49:00,
2013-02-25 14:50:00,42.0,31.5,30.13,ESE,106,1.1,3.3,66,0.00,,,0.00,118.00,VWS V14.01,2013-02-25 20:50:00,
2013-02-25 14:51:00,41.9,31.4,30.13,ENE,75,1.1,1.1,66,0.00,,,0.00,116.00,VWS V14.01,2013-02-25 20:51:00,
2013-02-25 14:52:00,41.9,31.4,30.13,SE,130,1.1,4.4,66,0.00,,,0.00,114.00,VWS V14.01,2013-02-25 20:52:00,
2013-02-25 14:54:00,42.0,31.5,30.13,East,86,5.5,6.6,66,0.00,,,0.00,109.00,VWS V14.01,2013-02-25 20:54:00,
2013-02-25 14:55:00,41.9,31.0,30.13,ENE,73,2.2,5.5,65,0.00,,,0.00,114.00,VWS V14.01,2013-02-25 20:55:00,
2013-02-25 14:56:00,41.9,31.0,30.13,ESE,120,1.1,3.3,65,0.00,,,0.00,113.00,VWS V14.01,2013-02-25 20:56:00,
2013-02-25 14:57:00,41.9,31.8,30.13,East,100,1.1,2.2,67,0.00,,,0.00,111.00,VWS V14.01,2013-02-25 20:57:00,
2013-02-25 15:01:00,41.9,31.4,30.13,ESE,106,3.3,4.4,66,0.00,,,0.00,88.00,VWS V14.01,2013-02-25 21:01:00,
2013-02-25 15:03:00,42.0,31.5,30.13,ESE,110,4.4,6.6,66,0.00,,,0.00,97.00,VWS V14.01,2013-02-25 21:03:00,
2013-02-25 15:07:00,42.3,32.1,30.13,ESE,108,5.5,9.9,67,0.00,,,0.00,97.00,VWS V14.01,2013-02-25 21:07:00,
2013-02-25 15:08:00,42.3,31.8,30.13,ESE,118,7.7,7.7,66,0.00,,,0.00,98.00,VWS V14.01,2013-02-25 21:08:00,
2013-02-25 15:09:00,42.3,31.8,30.13,ESE,112,5.5,9.9,66,0.00,,,0.00,118.00,VWS V14.01,2013-02-25 21:09:00,
2013-02-25 15:12:00,42.2,31.7,30.13,East,100,6.6,7.7,66,0.00,,,0.00,113.00,VWS V14.01,2013-02-25 21:12:00,
2013-02-25 15:13:00,42.2,31.3,30.13,SE,129,4.4,7.7,65,0.00,,,0.00,88.00,VWS V14.01,2013-02-25 21:13:00,
2013-02-25 15:14:00,42.1,31.2,30.13,ESE,108,5.5,7.7,65,0.00,,,0.00,104.00,VWS V14.01,2013-02-25 21:14:00,
2013-02-25 15:17:00,41.9,31.4,30.13,ESE,108,4.4,8.8,66,0.00,,,0.00,83.00,VWS V14.01,2013-02-25 21:17:00,
2013-02-25 15:18:00,42.0,31.5,30.13,ESE,120,4.4,5.5,66,0.00,,,0.00,79.00,VWS V14.01,2013-02-25 21:18:00,
2013-02-25 15:19:00,42.0,31.9,30.12,ENE,70,2.2,2.2,67,0.00,,,0.00,83.00,VWS V14.01,2013-02-25 21:19:00,
2013-02-25 15:22:00,41.9,31.4,30.12,ESE,105,3.3,6.6,66,0.00,,,0.00,90.00,VWS V14.01,2013-02-25 21:22:00,
2013-02-25 15:23:00,41.8,31.3,30.12,East,99,7.7,7.7,66,0.00,,,0.00,88.00,VWS V14.01,2013-02-25 21:23:00,
2013-02-25 15:24:00,41.8,31.3,30.12,ESE,103,2.2,7.7,66,0.00,,,0.00,81.00,VWS V14.01,2013-02-25 21:24:00,
2013-02-25 15:29:00,41.9,32.1,30.11,ENE,71,5.5,6.6,68,0.00,,,0.00,77.00,VWS V14.01,2013-02-25 21:29:00,
2013-02-25 15:30:00,41.9,31.8,30.11,East,81,2.2,4.4,67,0.00,,,0.00,77.00,VWS V14.01,2013-02-25 21:30:00,
2013-02-25 15:34:00,41.8,31.7,30.11,ENE,75,4.4,5.5,67,0.00,,,0.00,98.00,VWS V14.01,2013-02-25 21:34:00,
2013-02-25 15:35:00,41.8,31.7,30.11,ENE,76,3.3,5.5,67,0.00,,,0.00,120.00,VWS V14.01,2013-02-25 21:35:00,
2013-02-25 15:39:00,41.8,32.0,30.11,NE,54,3.3,4.4,68,0.00,,,0.00,135.00,VWS V14.01,2013-02-25 21:39:00,
2013-02-25 15:40:00,41.8,31.7,30.11,NE,45,4.4,6.6,67,0.00,,,0.00,134.00,VWS V14.01,2013-02-25 21:40:00,
2013-02-25 15:41:00,41.8,31.3,30.11,ENE,73,3.3,8.8,66,0.00,,,0.00,118.00,VWS V14.01,2013-02-25 21:41:00,
2013-02-25 15:44:00,41.6,31.1,30.10,NE,53,6.6,7.7,66,0.00,,,0.00,100.00,VWS V14.01,2013-02-25 21:44:00,
2013-02-25 15:46:00,41.6,31.5,30.10,ENE,69,11.0,11.0,67,0.00,,,0.00,114.00,VWS V14.01,2013-02-25 21:46:00,
2013-02-25 15:47:00,41.6,31.1,30.10,East,80,3.3,9.9,66,0.00,,,0.00,121.00,VWS V14.01,2013-02-25 21:47:00,
2013-02-25 15:50:00,41.5,31.0,30.10,ESE,108,5.5,5.5,66,0.00,,,0.00,93.00,VWS V14.01,2013-02-25 21:50:00,
2013-02-25 15:51:00,41.5,31.4,30.10,East,96,1.1,3.3,67,0.00,,,0.00,97.00,VWS V14.01,2013-02-25 21:51:00,
2013-02-25 15:52:00,41.5,31.4,30.10,East,82,2.2,3.3,67,0.00,,,0.00,97.00,VWS V14.01,2013-02-25 21:52:00,
2013-02-25 15:53:00,41.5,31.4,30.10,ENE,70,3.3,5.5,67,0.00,,,0.00,109.00,VWS V14.01,2013-02-25 21:53:00,
2013-02-25 15:55:00,41.6,31.5,30.10,NE,50,3.3,5.5,67,0.00,,,0.00,97.00,VWS V14.01,2013-02-25 21:55:00,
2013-02-25 15:57:00,41.6,31.8,30.10,East,83,3.3,6.6,68,0.00,,,0.00,125.00,VWS V14.01,2013-02-25 21:57:00,
2013-02-25 15:58:00,41.6,31.8,30.10,ENE,61,4.4,6.6,68,0.00,,,0.00,137.00,VWS V14.01,2013-02-25 21:58:00,
2013-02-25 16:01:00,41.6,31.8,30.10,East,97,8.8,8.8,68,0.00,,,0.00,111.00,VWS V14.01,2013-02-25 22:01:00,
2013-02-25 16:02:00,41.5,31.7,30.09,East,87,3.3,6.6,68,0.00,,,0.00,107.00,VWS V14.01,2013-02-25 22:02:00,
2013-02-25 16:04:00,41.5,31.7,30.09,ENE,73,4.4,6.6,68,0.00,,,0.00,104.00,VWS V14.01,2013-02-25 22:04:00,
2013-02-25 16:06:00,41.4,31.6,30.09,ENE,68,1.1,5.5,68,0.00,,,0.00,90.00,VWS V14.01,2013-02-25 22:06:00,
2013-02-25 16:07:00,41.4,31.6,30.09,ENE,66,4.4,6.6,68,0.00,,,0.00,90.00,VWS V14.01,2013-02-25 22:07:00,
2013-02-25 16:10:00,41.2,31.5,30.10,NE,56,4.4,4.4,68,0.00,,,0.00,81.00,VWS V14.01,2013-02-25 22:10:00,
2013-02-25 16:11:00,41.2,31.5,30.10,ENE,70,9.9,9.9,68,0.00,,,0.00,79.00,VWS V14.01,2013-02-25 22:11:00,
2013-02-25 16:13:00,41.1,31.0,30.09,ENE,75,2.2,7.7,67,0.00,,,0.00,83.00,VWS V14.01,2013-02-25 22:13:00,
2013-02-25 16:16:00,41.0,31.3,30.09,East,91,3.3,6.6,68,0.00,,,0.00,90.00,VWS V14.01,2013-02-25 22:16:00,
2013-02-25 16:19:00,40.9,31.2,30.09,ENE,70,2.2,5.5,68,0.00,,,0.00,86.00,VWS V14.01,2013-02-25 22:19:00,
2013-02-25 16:21:00,40.8,31.4,30.09,ENE,62,3.3,6.6,69,0.00,,,0.00,83.00,VWS V14.01,2013-02-25 22:21:00,
2013-02-25 16:22:00,40.7,31.7,30.09,ENE,75,4.4,4.4,70,0.00,,,0.00,83.00,VWS V14.01,2013-02-25 22:22:00,
2013-02-25 16:24:00,40.6,31.6,30.09,NE,54,4.4,9.9,70,0.00,,,0.00,83.00,VWS V14.01,2013-02-25 22:24:00,
2013-02-25 16:26:00,40.5,31.9,30.09,ENE,77,2.2,7.7,71,0.00,,,0.00,83.00,VWS V14.01,2013-02-25 22:26:00,
2013-02-25 16:27:00,40.4,31.8,30.09,East,101,4.4,4.4,71,0.00,,,0.00,81.00,VWS V14.01,2013-02-25 22:27:00,
2013-02-25 16:30:00,40.2,31.6,30.08,ESE,115,4.4,6.6,71,0.00,,,0.00,79.00,VWS V14.01,2013-02-25 22:30:00,
2013-02-25 16:32:00,40.1,31.8,30.09,East,86,7.7,7.7,72,0.00,,,0.00,76.00,VWS V14.01,2013-02-25 22:32:00,
2013-02-25 16:33:00,40.0,31.7,30.09,East,93,7.7,7.7,72,0.00,,,0.00,74.00,VWS V14.01,2013-02-25 22:33:00,
2013-02-25 16:35:00,39.9,31.6,30.08,ENE,70,5.5,7.7,72,0.00,,,0.00,72.00,VWS V14.01,2013-02-25 22:35:00,
2013-02-25 16:38:00,39.7,31.8,30.08,East,79,2.2,5.5,73,0.00,,,0.00,69.00,VWS V14.01,2013-02-25 22:38:00,
2013-02-25 16:40:00,39.6,31.7,30.08,East,95,7.7,7.7,73,0.00,,,0.00,67.00,VWS V14.01,2013-02-25 22:40:00,
2013-02-25 16:41:00,39.5,31.6,30.08,East,84,2.2,7.7,73,0.00,,,0.00,67.00,VWS V14.01,2013-02-25 22:41:00,
2013-02-25 16:43:00,39.5,31.6,30.08,ENE,77,5.5,7.7,73,0.00,,,0.00,62.00,VWS V14.01,2013-02-25 22:43:00,
2013-02-25 16:45:00,39.3,31.4,30.08,East,89,3.3,9.9,73,0.00,,,0.00,58.00,VWS V14.01,2013-02-25 22:45:00,
2013-02-25 16:46:00,39.3,31.4,30.08,East,83,7.7,8.8,73,0.00,,,0.00,56.00,VWS V14.01,2013-02-25 22:46:00,
2013-02-25 16:48:00,39.2,31.3,30.08,ENE,77,1.1,6.6,73,0.00,,,0.00,51.00,VWS V14.01,2013-02-25 22:48:00,
2013-02-25 16:50:00,39.2,31.3,30.08,ENE,77,2.2,7.7,73,0.00,,,0.00,44.00,VWS V14.01,2013-02-25 22:50:00,
2013-02-25 16:51:00,39.1,31.2,30.08,East,81,2.2,5.5,73,0.00,,,0.00,42.00,VWS V14.01,2013-02-25 22:51:00,
2013-02-25 16:53:00,39.0,31.4,30.08,ENE,75,4.4,4.4,74,0.00,,,0.00,39.00,VWS V14.01,2013-02-25 22:53:00,
2013-02-25 16:55:00,38.9,31.3,30.07,ENE,75,4.4,7.7,74,0.00,,,0.00,37.00,VWS V14.01,2013-02-25 22:55:00,
2013-02-25 16:58:00,38.8,31.2,30.07,ENE,75,1.1,4.4,74,0.00,,,0.00,35.00,VWS V14.01,2013-02-25 22:58:00,
2013-02-25 16:59:00,38.7,31.1,30.07,ENE,70,1.1,4.4,74,0.00,,,0.00,35.00,VWS V14.01,2013-02-25 22:59:00,
2013-02-25 17:00:00,38.6,31.4,30.07,ENE,74,5.5,5.5,75,0.00,,,0.00,33.00,VWS V14.01,2013-02-25 23:00:00,
2013-02-25 17:03:00,38.6,31.4,30.07,East,87,2.2,3.3,75,0.00,,,0.00,30.00,VWS V14.01,2013-02-25 23:03:00,
2013-02-25 17:04:00,38.6,31.4,30.07,East,87,0.0,3.3,75,0.00,,,0.00,28.00,VWS V14.01,2013-02-25 23:04:00,
2013-02-25 17:05:00,38.5,31.3,30.08,ENE,66,2.2,2.2,75,0.00,,,0.00,25.00,VWS V14.01,2013-02-25 23:05:00,
2013-02-25 17:09:00,38.5,31.3,30.08,ENE,69,0.0,3.3,75,0.00,,,0.00,18.00,VWS V14.01,2013-02-25 23:09:00,
2013-02-25 17:11:00,38.5,31.3,30.08,ENE,78,2.2,3.3,75,0.00,,,0.00,16.00,VWS V14.01,2013-02-25 23:11:00,
2013-02-25 17:14:00,38.4,31.2,30.08,ENE,70,3.3,5.5,75,0.00,,,0.00,14.00,VWS V14.01,2013-02-25 23:14:00,
2013-02-25 17:17:00,38.3,31.4,30.09,East,91,2.2,3.3,76,0.00,,,0.00,11.00,VWS V14.01,2013-02-25 23:17:00,
2013-02-25 17:19:00,38.2,31.3,30.09,East,84,2.2,5.5,76,0.00,,,0.00,11.00,VWS V14.01,2013-02-25 23:19:00,
2013-02-25 17:20:00,38.2,31.3,30.08,East,84,2.2,2.2,76,0.00,,,0.00,9.00,VWS V14.01,2013-02-25 23:20:00,
2013-02-25 17:23:00,38.0,31.4,30.08,ENE,66,3.3,3.3,77,0.00,,,0.00,7.00,VWS V14.01,2013-02-25 23:23:00,
2013-02-25 17:24:00,37.9,31.4,30.08,East,82,5.5,6.6,77,0.00,,,0.00,7.00,VWS V14.01,2013-02-25 23:24:00,
2013-02-25 17:25:00,37.9,31.4,30.08,ENE,74,3.3,6.6,77,0.00,,,0.00,7.00,VWS V14.01,2013-02-25 23:25:00,
2013-02-25 17:27:00,37.7,31.1,30.08,ENE,70,3.3,5.5,77,0.00,,,0.00,5.00,VWS V14.01,2013-02-25 23:27:00,
2013-02-25 17:28:00,37.7,31.1,30.08,ENE,77,4.4,5.5,77,0.00,,,0.00,5.00,VWS V14.01,2013-02-25 23:28:00,
2013-02-25 17:29:00,37.7,31.1,30.08,ENE,76,1.1,1.1,77,0.00,,,0.00,5.00,VWS V14.01,2013-02-25 23:29:00,
2013-02-25 17:30:00,37.7,31.1,30.08,ENE,76,1.1,2.2,77,0.00,,,0.00,5.00,VWS V14.01,2013-02-25 23:30:00,
2013-02-25 17:32:00,37.5,31.0,30.08,ENE,68,3.3,4.4,77,0.00,,,0.00,0.00,VWS V14.01,2013-02-25 23:32:00,
2013-02-25 17:34:00,37.5,31.0,30.08,East,83,3.3,3.3,77,0.00,,,0.00,0.00,VWS V14.01,2013-02-25 23:34:00,
2013-02-25 17:36:00,37.4,31.2,30.08,East,87,3.3,6.6,78,0.00,,,0.00,0.00,VWS V14.01,2013-02-25 23:36:00,
2013-02-25 17:37:00,37.3,31.1,30.08,ENE,76,7.7,7.7,78,0.00,,,0.00,0.00,VWS V14.01,2013-02-25 23:37:00,
2013-02-25 17:40:00,37.1,30.9,30.08,ENE,73,2.2,4.4,78,0.00,,,0.00,0.00,VWS V14.01,2013-02-25 23:40:00,
2013-02-25 17:41:00,37.1,30.9,30.08,ENE,68,4.4,4.4,78,0.00,,,0.00,0.00,VWS V14.01,2013-02-25 23:41:00,
2013-02-25 17:43:00,37.0,31.1,30.08,ENE,75,2.2,3.3,79,0.00,,,0.00,0.00,VWS V14.01,2013-02-25 23:43:00,
2013-02-25 17:45:00,37.0,31.1,30.08,ENE,68,3.3,5.5,79,0.00,,,0.00,0.00,VWS V14.01,2013-02-25 23:45:00,
2013-02-25 17:46:00,37.0,31.1,30.08,East,85,5.5,5.5,79,0.00,,,0.00,0.00,VWS V14.01,2013-02-25 23:46:00,
2013-02-25 17:47:00,37.0,30.8,30.08,ENE,70,2.2,4.4,78,0.00,,,0.00,0.00,VWS V14.01,2013-02-25 23:47:00,
2013-02-25 17:49:00,37.0,30.8,30.07,ENE,70,1.1,5.5,78,0.00,,,0.00,0.00,VWS V14.01,2013-02-25 23:49:00,
2013-02-25 17:50:00,37.0,30.8,30.07,ENE,70,2.2,4.4,78,0.00,,,0.00,0.00,VWS V14.01,2013-02-25 23:50:00,
2013-02-25 17:51:00,37.0,30.8,30.07,NE,52,1.1,4.4,78,0.00,,,0.00,0.00,VWS V14.01,2013-02-25 23:51:00,
2013-02-25 17:52:00,37.0,30.8,30.08,NE,52,2.2,2.2,78,0.00,,,0.00,0.00,VWS V14.01,2013-02-25 23:52:00,
2013-02-25 17:55:00,37.0,30.8,30.08,NE,55,2.2,5.5,78,0.00,,,0.00,0.00,VWS V14.01,2013-02-25 23:55:00,
2013-02-25 17:56:00,36.9,31.0,30.08,NE,47,3.3,7.7,79,0.00,,,0.00,0.00,VWS V14.01,2013-02-25 23:56:00,
2013-02-25 17:58:00,36.7,30.8,30.08,NE,51,3.3,8.8,79,0.00,,,0.00,0.00,VWS V14.01,2013-02-25 23:58:00,
2013-02-25 18:00:00,36.6,31.0,30.08,NE,43,3.3,4.4,80,0.00,,,0.00,0.00,VWS V14.01,2013-02-26 00:00:00,
2013-02-25 18:01:00,36.4,30.8,30.08,NE,40,4.4,5.5,80,0.00,,,0.00,0.00,VWS V14.01,2013-02-26 00:01:00,
2013-02-25 18:03:00,36.3,30.7,30.07,NE,49,5.5,5.5,80,0.00,,,0.00,0.00,VWS V14.01,2013-02-26 00:03:00,
2013-02-25 18:05:00,36.2,30.6,30.07,NE,48,4.4,7.7,80,0.00,,,0.00,0.00,VWS V14.01,2013-02-26 00:05:00,
2013-02-25 18:06:00,36.1,30.5,30.06,ENE,70,7.7,7.7,80,0.00,,,0.00,0.00,VWS V14.01,2013-02-26 00:06:00,
2013-02-25 18:09:00,36.0,30.4,30.06,ENE,60,9.9,9.9,80,0.00,,,0.00,0.00,VWS V14.01,2013-02-26 00:09:00,
2013-02-25 18:10:00,36.0,30.4,30.06,NE,56,7.7,9.9,80,0.00,,,0.00,0.00,VWS V14.01,2013-02-26 00:10:00,
2013-02-25 18:11:00,36.0,30.4,30.06,NE,41,4.4,6.6,80,0.00,,,0.00,0.00,VWS V14.01,2013-02-26 00:11:00,
2013-02-25 18:12:00,36.0,30.4,30.06,NE,51,7.7,7.7,80,0.00,,,0.00,0.00,VWS V14.01,2013-02-26 00:12:00,
2013-02-25 18:15:00,35.9,30.3,30.07,NE,41,7.7,7.7,80,0.00,,,0.00,0.00,VWS V14.01,2013-02-26 00:15:00,
2013-02-25 18:16:00,35.9,30.3,30.07,NE,48,8.8,8.8,80,0.00,,,0.00,0.00,VWS V14.01,2013-02-26 00:16:00,
2013-02-25 18:17:00,35.8,30.2,30.07,NE,53,3.3,3.3,80,0.00,,,0.00,0.00,VWS V14.01,2013-02-26 00:17:00,
2013-02-25 18:21:00,35.6,30.0,30.06,NE,43,6.6,11.0,80,0.00,,,0.00,0.00,VWS V14.01,2013-02-26 00:21:00,
2013-02-25 18:22:00,35.6,30.0,30.06,NE,55,4.4,7.7,80,0.00,,,0.00,0.00,VWS V14.01,2013-02-26 00:22:00,
2013-02-25 18:24:00,35.5,30.0,30.06,NE,35,4.4,7.7,80,0.00,,,0.00,0.00,VWS V14.01,2013-02-26 00:24:00,
2013-02-25 18:27:00,35.3,30.1,30.06,NE,52,6.6,9.9,81,0.00,,,0.00,0.00,VWS V14.01,2013-02-26 00:27:00,
2013-02-25 18:28:00,35.3,30.1,30.06,ENE,72,5.5,7.7,81,0.00,,,0.00,0.00,VWS V14.01,2013-02-26 00:28:00,
2013-02-25 18:30:00,35.3,30.1,30.06,NE,38,3.3,5.5,81,0.00,,,0.00,0.00,VWS V14.01,2013-02-26 00:30:00,
2013-02-25 18:32:00,35.4,30.2,30.06,NE,39,6.6,7.7,81,0.00,,,0.00,0.00,VWS V14.01,2013-02-26 00:32:00,
2013-02-25 18:33:00,35.4,30.2,30.06,NNE,15,2.2,8.8,81,0.00,,,0.00,0.00,VWS V14.01,2013-02-26 00:33:00,
2013-02-25 18:34:00,35.3,30.1,30.06,NNE,27,3.3,3.3,81,0.00,,,0.00,0.00,VWS V14.01,2013-02-26 00:34:00,
2013-02-25 18:36:00,35.3,30.1,30.06,NE,50,3.3,4.4,81,0.00,,,0.00,0.00,VWS V14.01,2013-02-26 00:36:00,
2013-02-25 18:37:00,35.3,30.1,30.06,ESE,102,3.3,4.4,81,0.00,,,0.00,0.00,VWS V14.01,2013-02-26 00:37:00,
2013-02-25 18:39:00,35.3,30.1,30.06,NE,51,3.3,9.9,81,0.00,,,0.00,0.00,VWS V14.01,2013-02-26 00:39:00,
2013-02-25 18:41:00,35.4,30.2,30.06,NE,56,3.3,3.3,81,0.00,,,0.00,0.00,VWS V14.01,2013-02-26 00:41:00,
2013-02-25 18:43:00,35.5,30.3,30.06,ENE,60,8.8,8.8,81,0.00,,,0.00,0.00,VWS V14.01,2013-02-26 00:43:00,
2013-02-25 18:44:00,35.5,30.3,30.06,NNE,29,3.3,5.5,81,0.00,,,0.00,0.00,VWS V14.01,2013-02-26 00:44:00,
2013-02-25 18:47:00,35.6,30.4,30.07,ENE,64,5.5,11.0,81,0.00,,,0.00,0.00,VWS V14.01,2013-02-26 00:47:00,
2013-02-25 18:48:00,35.6,30.4,30.07,NE,41,7.7,7.7,81,0.00,,,0.00,0.00,VWS V14.01,2013-02-26 00:48:00,
2013-02-25 18:49:00,35.6,30.4,30.07,NE,42,3.3,7.7,81,0.00,,,0.00,0.00,VWS V14.01,2013-02-26 00:49:00,
2013-02-25 18:52:00,35.5,30.0,30.07,ENE,71,5.5,7.7,80,0.00,,,0.00,0.00,VWS V14.01,2013-02-26 00:52:00,
2013-02-25 18:54:00,35.5,30.3,30.07,ENE,57,5.5,5.5,81,0.00,,,0.00,0.00,VWS V14.01,2013-02-26 00:54:00,
2013-02-25 18:57:00,35.5,30.3,30.07,NE,43,6.6,6.6,81,0.00,,,0.00,0.00,VWS V14.01,2013-02-26 00:57:00,
2013-02-25 18:59:00,35.5,30.3,30.07,NE,56,4.4,6.6,81,0.00,,,0.00,0.00,VWS V14.01,2013-02-26 00:59:00,
2013-02-25 19:02:00,35.3,30.1,30.07,NE,50,7.7,7.7,81,0.00,,,0.00,0.00,VWS V14.01,2013-02-26 01:02:00,
2013-02-25 19:03:00,35.3,30.1,30.06,NE,54,2.2,5.5,81,0.00,,,0.00,0.00,VWS V14.01,2013-02-26 01:03:00,
2013-02-25 19:05:00,35.2,30.0,30.05,ENE,61,4.4,4.4,81,0.00,,,0.00,0.00,VWS V14.01,2013-02-26 01:05:00,
2013-02-25 19:08:00,35.0,30.1,30.05,NE,55,3.3,8.8,82,0.00,,,0.00,0.00,VWS V14.01,2013-02-26 01:08:00,
2013-02-25 19:10:00,34.9,30.0,30.04,ENE,58,4.4,8.8,82,0.00,,,0.00,0.00,VWS V14.01,2013-02-26 01:10:00,
2013-02-25 19:11:00,34.9,30.0,30.04,NE,37,7.7,8.8,82,0.00,,,0.00,0.00,VWS V14.01,2013-02-26 01:11:00,
2013-02-25 19:14:00,34.8,29.9,30.04,NE,40,5.5,8.8,82,0.00,,,0.00,0.00,VWS V14.01,2013-02-26 01:14:00,
2013-02-25 19:15:00,34.7,30.1,30.04,ENE,65,4.4,7.7,83,0.00,,,0.00,0.00,VWS V14.01,2013-02-26 01:15:00,
2013-02-25 19:16:00,34.7,30.1,30.04,NE,51,5.5,8.8,83,0.00,,,0.00,0.00,VWS V14.01,2013-02-26 01:16:00,
2013-02-25 19:19:00,34.7,30.1,30.04,ENE,67,3.3,11.0,83,0.00,,,0.00,0.00,VWS V14.01,2013-02-26 01:19:00,
2013-02-25 19:20:00,34.6,30.0,30.03,NE,36,6.6,7.7,83,0.00,,,0.00,0.00,VWS V14.01,2013-02-26 01:20:00,
2013-02-25 19:21:00,34.6,30.0,30.03,ENE,63,4.4,7.7,83,0.00,,,0.00,0.00,VWS V14.01,2013-02-26 01:21:00,
2013-02-25 19:24:00,34.5,29.9,30.03,ENE,68,4.4,5.5,83,0.00,,,0.00,0.00,VWS V14.01,2013-02-26 01:24:00,
2013-02-25 19:25:00,34.4,30.1,30.03,NE,39,7.7,8.8,84,0.00,,,0.00,0.00,VWS V14.01,2013-02-26 01:25:00,
2013-02-25 19:26:00,34.4,30.1,30.03,NE,52,6.6,9.9,84,0.00,,,0.00,0.00,VWS V14.01,2013-02-26 01:26:00,
2013-02-25 19:30:00,34.4,30.1,30.03,ENE,76,7.7,9.9,84,0.00,,,0.00,0.00,VWS V14.01,2013-02-26 01:30:00,
2013-02-25 19:31:00,34.4,30.1,30.03,NNE,33,8.8,8.8,84,0.00,,,0.00,0.00,VWS V14.01,2013-02-26 01:31:00,
2013-02-25 19:32:00,34.4,30.1,30.03,ENE,72,2.2,7.7,84,0.00,,,0.00,0.00,VWS V14.01,2013-02-26 01:32:00,
2013-02-25 19:35:00,34.5,29.9,30.03,NE,54,3.3,5.5,83,0.00,,,0.00,0.00,VWS V14.01,2013-02-26 01:35:00,
2013-02-25 19:36:00,34.5,29.9,30.03,East,82,6.6,6.6,83,0.00,,,0.00,0.00,VWS V14.01,2013-02-26 01:36:00,
2013-02-25 19:37:00,34.5,29.9,30.03,NE,46,7.7,8.8,83,0.00,,,0.00,0.00,VWS V14.01,2013-02-26 01:37:00,
2013-02-25 19:40:00,34.5,29.9,30.03,NE,46,4.4,7.7,83,0.00,,,0.00,0.00,VWS V14.01,2013-02-26 01:40:00,
2013-02-25 19:41:00,34.5,29.9,30.03,NE,43,2.2,5.5,83,0.00,,,0.00,0.00,VWS V14.01,2013-02-26 01:41:00,
2013-02-25 19:42:00,34.5,29.9,30.03,NE,56,11.0,11.0,83,0.00,,,0.00,0.00,VWS V14.01,2013-02-26 01:42:00,
2013-02-25 19:46:00,34.4,29.8,30.03,ENE,69,5.5,9.9,83,0.00,,,0.00,0.00,VWS V14.01,2013-02-26 01:46:00,
2013-02-25 19:47:00,34.4,29.8,30.03,ENE,58,7.7,7.7,83,0.00,,,0.00,0.00,VWS V14.01,2013-02-26 01:47:00,
2013-02-25 19:48:00,34.4,29.8,30.03,East,92,5.5,5.5,83,0.00,,,0.00,0.00,VWS V14.01,2013-02-26 01:48:00,
2013-02-25 19:51:00,34.4,29.8,30.03,ENE,62,5.5,9.9,83,0.00,,,0.00,0.00,VWS V14.01,2013-02-26 01:51:00,
2013-02-25 19:53:00,34.3,29.7,30.03,NE,40,3.3,4.4,83,0.00,,,0.00,0.00,VWS V14.01,2013-02-26 01:53:00,
2013-02-25 19:56:00,34.3,29.7,30.03,NE,46,2.2,11.0,83,0.00,,,0.00,0.00,VWS V14.01,2013-02-26 01:56:00,
2013-02-25 19:58:00,34.3,29.7,30.03,NNE,30,3.3,6.6,83,0.00,,,0.00,0.00,VWS V14.01,2013-02-26 01:58:00,
2013-02-25 19:59:00,34.2,29.6,30.03,NE,55,2.2,4.4,83,0.00,,,0.00,0.00,VWS V14.01,2013-02-26 01:59:00,
2013-02-25 20:01:00,34.3,29.7,30.04,NE,52,2.2,7.7,83,0.00,,,0.00,0.00,VWS V14.01,2013-02-26 02:01:00,
2013-02-25 20:03:00,34.2,29.6,30.05,ENE,77,3.3,8.8,83,0.00,,,0.00,0.00,VWS V14.01,2013-02-26 02:03:00,
2013-02-25 20:04:00,34.2,29.6,30.05,ENE,63,4.4,9.9,83,0.00,,,0.00,0.00,VWS V14.01,2013-02-26 02:04:00,
2013-02-25 20:05:00,34.2,29.6,30.05,ENE,65,4.4,4.4,83,0.00,,,0.00,0.00,VWS V14.01,2013-02-26 02:05:00,
2013-02-25 20:06:00,34.3,29.7,30.05,NE,48,6.6,6.6,83,0.00,,,0.00,0.00,VWS V14.01,2013-02-26 02:06:00,
2013-02-25 20:08:00,34.3,29.7,30.04,NE,48,5.5,8.8,83,0.00,,,0.00,0.00,VWS V14.01,2013-02-26 02:08:00,
2013-02-25 20:10:00,34.3,29.7,30.04,NE,48,5.5,6.6,83,0.00,,,0.00,0.00,VWS V14.01,2013-02-26 02:10:00,
2013-02-25 20:11:00,34.3,29.7,30.04,NE,45,4.4,7.7,83,0.00,,,0.00,0.00,VWS V14.01,2013-02-26 02:11:00,
2013-02-25 20:13:00,34.2,29.6,30.04,East,81,3.3,6.6,83,0.00,,,0.00,0.00,VWS V14.01,2013-02-26 02:13:00,
2013-02-25 20:15:00,34.2,29.6,30.04,East,81,9.9,9.9,83,0.00,,,0.00,0.00,VWS V14.01,2013-02-26 02:15:00,
2013-02-25 20:16:00,34.2,29.6,30.03,NE,47,5.5,11.0,83,0.00,,,0.00,0.00,VWS V14.01,2013-02-26 02:16:00,
2013-02-25 20:19:00,34.2,29.6,30.04,ENE,57,12.1,12.1,83,0.00,,,0.00,0.00,VWS V14.01,2013-02-26 02:19:00,
2013-02-25 20:20:00,34.1,29.5,30.04,NNE,30,7.7,12.1,83,0.00,,,0.00,0.00,VWS V14.01,2013-02-26 02:20:00,
2013-02-25 20:21:00,34.1,29.5,30.04,ENE,73,3.3,7.7,83,0.00,,,0.00,0.00,VWS V14.01,2013-02-26 02:21:00,
2013-02-25 20:22:00,34.1,29.5,30.04,ENE,73,1.1,7.7,83,0.00,,,0.00,0.00,VWS V14.01,2013-02-26 02:22:00,
2013-02-25 20:24:00,34.1,29.5,30.05,NE,40,8.8,9.9,83,0.00,,,0.00,0.00,VWS V14.01,2013-02-26 02:24:00,
2013-02-25 20:26:00,34.1,29.5,30.06,NNE,31,2.2,5.5,83,0.00,,,0.00,0.00,VWS V14.01,2013-02-26 02:26:00,
2013-02-25 20:27:00,34.1,29.5,30.06,ENE,60,4.4,6.6,83,0.00,,,0.00,0.00,VWS V14.01,2013-02-26 02:27:00,
2013-02-25 20:28:00,34.1,29.5,30.06,ENE,62,3.3,6.6,83,0.00,,,0.00,0.00,VWS V14.01,2013-02-26 02:28:00,
2013-02-25 20:30:00,34.1,29.5,30.06,NE,47,3.3,7.7,83,0.00,,,0.00,0.00,VWS V14.01,2013-02-26 02:30:00,
2013-02-25 20:32:00,34.0,29.4,30.06,NE,43,6.6,8.8,83,0.00,,,0.00,0.00,VWS V14.01,2013-02-26 02:32:00,
2013-02-25 20:34:00,33.9,29.3,30.06,ENE,58,7.7,7.7,83,0.00,,,0.00,0.00,VWS V14.01,2013-02-26 02:34:00,
2013-02-25 20:35:00,33.9,29.3,30.06,ENE,64,3.3,4.4,83,0.00,,,0.00,0.00,VWS V14.01,2013-02-26 02:35:00,
2013-02-25 20:37:00,33.9,29.3,30.06,NE,45,4.4,7.7,83,0.00,,,0.00,0.00,VWS V14.01,2013-02-26 02:37:00,
2013-02-25 20:38:00,33.9,29.3,30.06,NE,43,3.3,5.5,83,0.00,,,0.00,0.00,VWS V14.01,2013-02-26 02:38:00,
2013-02-25 20:39:00,33.9,29.3,30.06,East,81,5.5,5.5,83,0.00,,,0.00,0.00,VWS V14.01,2013-02-26 02:39:00,
2013-02-25 20:40:00,33.8,29.2,30.06,East,79,5.5,5.5,83,0.00,,,0.00,0.00,VWS V14.01,2013-02-26 02:40:00,
2013-02-25 20:43:00,33.7,29.1,30.06,NE,55,3.3,3.3,83,0.00,,,0.00,0.00,VWS V14.01,2013-02-26 02:43:00,
2013-02-25 20:45:00,33.7,29.1,30.06,ENE,62,5.5,5.5,83,0.00,,,0.00,0.00,VWS V14.01,2013-02-26 02:45:00,
2013-02-25 20:46:00,33.7,29.1,30.07,ENE,60,3.3,3.3,83,0.00,,,0.00,0.00,VWS V14.01,2013-02-26 02:46:00,
2013-02-25 20:48:00,33.6,29.3,30.07,NE,52,2.2,4.4,84,0.00,,,0.00,0.00,VWS V14.01,2013-02-26 02:48:00,
2013-02-25 20:49:00,33.5,28.9,30.07,East,79,5.5,5.5,83,0.00,,,0.00,0.00,VWS V14.01,2013-02-26 02:49:00,
2013-02-25 20:51:00,33.5,29.2,30.07,NE,55,2.2,5.5,84,0.00,,,0.00,0.00,VWS V14.01,2013-02-26 02:51:00,
2013-02-25 20:53:00,33.5,29.2,30.07,East,88,8.8,8.8,84,0.00,,,0.00,0.00,VWS V14.01,2013-02-26 02:53:00,
2013-02-25 20:55:00,33.5,29.2,30.07,NE,50,4.4,4.4,84,0.00,,,0.00,0.00,VWS V14.01,2013-02-26 02:55:00,
2013-02-25 20:56:00,33.5,29.2,30.07,ENE,70,3.3,5.5,84,0.00,,,0.00,0.00,VWS V14.01,2013-02-26 02:56:00,
2013-02-25 20:58:00,33.4,29.1,30.07,East,79,3.3,6.6,84,0.00,,,0.00,0.00,VWS V14.01,2013-02-26 02:58:00,
2013-02-25 21:00:00,33.4,29.1,30.07,NE,46,5.5,5.5,84,0.00,,,0.00,0.00,VWS V14.01,2013-02-26 03:00:00,
2013-02-25 21:02:00,33.3,29.0,30.07,ENE,70,2.2,6.6,84,0.00,,,0.00,0.00,VWS V14.01,2013-02-26 03:02:00,
2013-02-25 21:03:00,33.3,29.0,30.07,ENE,68,3.3,3.3,84,0.00,,,0.00,0.00,VWS V14.01,2013-02-26 03:03:00,
2013-02-25 21:05:00,33.3,29.0,30.07,ENE,62,5.5,5.5,84,0.00,,,0.00,0.00,VWS V14.01,2013-02-26 03:05:00,
2013-02-25 21:07:00,33.2,28.9,30.07,NE,56,2.2,5.5,84,0.00,,,0.00,0.00,VWS V14.01,2013-02-26 03:07:00,
2013-02-25 21:09:00,33.3,29.0,30.07,East,86,7.7,7.7,84,0.00,,,0.00,0.00,VWS V14.01,2013-02-26 03:09:00,
2013-02-25 21:10:00,33.3,29.0,30.07,ENE,64,3.3,7.7,84,0.00,,,0.00,0.00,VWS V14.01,2013-02-26 03:10:00,
2013-02-25 21:12:00,33.3,29.0,30.07,NE,39,3.3,5.5,84,0.00,,,0.00,0.00,VWS V14.01,2013-02-26 03:12:00,
2013-02-25 21:14:00,33.3,29.0,30.07,NE,43,2.2,5.5,84,0.00,,,0.00,0.00,VWS V14.01,2013-02-26 03:14:00,
2013-02-25 21:16:00,33.3,29.0,30.07,ENE,57,4.4,7.7,84,0.00,,,0.00,0.00,VWS V14.01,2013-02-26 03:16:00,
2013-02-25 21:17:00,33.3,29.0,30.07,ENE,69,3.3,5.5,84,0.00,,,0.00,0.00,VWS V14.01,2013-02-26 03:17:00,
2013-02-25 21:19:00,33.2,28.9,30.07,ENE,70,3.3,9.9,84,0.00,,,0.00,0.00,VWS V14.01,2013-02-26 03:19:00,
2013-02-25 21:21:00,33.2,28.9,30.07,NE,52,5.5,6.6,84,0.00,,,0.00,0.00,VWS V14.01,2013-02-26 03:21:00,
2013-02-25 21:23:00,33.1,28.8,30.07,ENE,60,3.3,3.3,84,0.00,,,0.00,0.00,VWS V14.01,2013-02-26 03:23:00,
2013-02-25 21:25:00,33.0,29.0,30.07,East,94,5.5,6.6,85,0.00,,,0.00,0.00,VWS V14.01,2013-02-26 03:25:00,
2013-02-25 21:26:00,32.9,28.9,30.07,NE,56,3.3,7.7,85,0.00,,,0.00,0.00,VWS V14.01,2013-02-26 03:26:00,
2013-02-25 21:27:00,32.9,28.9,30.07,ENE,66,3.3,4.4,85,0.00,,,0.00,0.00,VWS V14.01,2013-02-26 03:27:00,
2013-02-25 21:28:00,32.9,28.9,30.07,NE,44,4.4,7.7,85,0.00,,,0.00,0.00,VWS V14.01,2013-02-26 03:28:00,
2013-02-25 21:30:00,32.8,28.8,30.07,NE,50,3.3,7.7,85,0.00,,,0.00,0.00,VWS V14.01,2013-02-26 03:30:00,
2013-02-25 21:31:00,32.8,28.8,30.06,NE,45,6.6,7.7,85,0.00,,,0.00,0.00,VWS V14.01,2013-02-26 03:31:00,
2013-02-25 21:32:00,32.8,28.8,30.06,NE,53,5.5,6.6,85,0.00,,,0.00,0.00,VWS V14.01,2013-02-26 03:32:00,
2013-02-25 21:34:00,32.9,28.9,30.06,NE,51,3.3,3.3,85,0.00,,,0.00,0.00,VWS V14.01,2013-02-26 03:34:00,
2013-02-25 21:35:00,32.9,28.9,30.06,NE,48,4.4,8.8,85,0.00,,,0.00,0.00,VWS V14.01,2013-02-26 03:35:00,
2013-02-25 21:37:00,32.9,28.9,30.06,NE,46,5.5,5.5,85,0.00,,,0.00,0.00,VWS V14.01,2013-02-26 03:37:00,
2013-02-25 21:38:00,33.0,29.0,30.06,NE,41,6.6,8.8,85,0.00,,,0.00,0.00,VWS V14.01,2013-02-26 03:38:00,
2013-02-25 21:40:00,33.1,29.1,30.06,NE,50,3.3,8.8,85,0.00,,,0.00,0.00,VWS V14.01,2013-02-26 03:40:00,
2013-02-25 21:41:00,33.1,29.1,30.06,NE,40,6.6,6.6,85,0.00,,,0.00,0.00,VWS V14.01,2013-02-26 03:41:00,
2013-02-25 21:42:00,33.1,29.1,30.06,East,92,5.5,6.6,85,0.00,,,0.00,0.00,VWS V14.01,2013-02-26 03:42:00,
2013-02-25 21:44:00,33.2,28.9,30.06,ENE,62,5.5,6.6,84,0.00,,,0.00,0.00,VWS V14.01,2013-02-26 03:44:00,
2013-02-25 21:45:00,33.3,29.0,30.06,NE,38,3.3,6.6,84,0.00,,,0.00,0.00,VWS V14.01,2013-02-26 03:45:00,
2013-02-25 21:46:00,33.3,29.0,30.06,ENE,69,9.9,14.3,84,0.00,,,0.00,0.00,VWS V14.01,2013-02-26 03:46:00,
2013-02-25 21:48:00,33.3,29.0,30.06,ENE,59,3.3,8.8,84,0.00,,,0.00,0.00,VWS V14.01,2013-02-26 03:48:00,
2013-02-25 21:49:00,33.3,29.0,30.06,NNE,30,8.8,8.8,84,0.00,,,0.00,0.00,VWS V14.01,2013-02-26 03:49:00,
2013-02-25 21:50:00,33.4,29.1,30.06,NE,35,8.8,12.1,84,0.00,,,0.00,0.00,VWS V14.01,2013-02-26 03:50:00,
2013-02-25 21:51:00,33.3,29.0,30.06,ENE,60,4.4,12.1,84,0.00,,,0.00,0.00,VWS V14.01,2013-02-26 03:51:00,
2013-02-25 21:53:00,33.4,29.1,30.06,NE,48,6.6,12.1,84,0.00,,,0.00,0.00,VWS V14.01,2013-02-26 03:53:00,
2013-02-25 21:54:00,33.4,29.1,30.06,NE,50,5.5,12.1,84,0.00,,,0.00,0.00,VWS V14.01,2013-02-26 03:54:00,
2013-02-25 21:56:00,33.4,29.1,30.05,NE,45,4.4,9.9,84,0.00,,,0.00,0.00,VWS V14.01,2013-02-26 03:56:00,
2013-02-25 21:59:00,33.4,29.1,30.05,NNE,31,7.7,8.8,84,0.00,,,0.00,0.00,VWS V14.01,2013-02-26 03:59:00,
2013-02-25 22:02:00,33.4,29.1,30.05,NE,53,9.9,9.9,84,0.00,,,0.00,0.00,VWS V14.01,2013-02-26 04:02:00,
2013-02-25 22:03:00,33.4,29.1,30.05,NE,45,5.5,12.1,84,0.00,,,0.00,0.00,VWS V14.01,2013-02-26 04:03:00,
2013-02-25 22:05:00,33.4,29.1,30.05,NNE,27,8.8,9.9,84,0.00,,,0.00,0.00,VWS V14.01,2013-02-26 04:05:00,
2013-02-25 22:07:00,33.5,29.2,30.05,NE,45,5.5,8.8,84,0.00,,,0.00,0.00,VWS V14.01,2013-02-26 04:07:00,
2013-02-25 22:08:00,33.5,29.2,30.05,East,81,3.3,12.1,84,0.00,,,0.00,0.00,VWS V14.01,2013-02-26 04:08:00,
2013-02-25 22:10:00,33.4,29.1,30.05,ENE,71,9.9,9.9,84,0.00,,,0.00,0.00,VWS V14.01,2013-02-26 04:10:00,
2013-02-25 22:11:00,33.4,29.1,30.05,NNE,21,8.8,11.0,84,0.00,,,0.00,0.00,VWS V14.01,2013-02-26 04:11:00,
2013-02-25 22:12:00,33.4,29.1,30.05,NE,52,5.5,8.8,84,0.00,,,0.00,0.00,VWS V14.01,2013-02-26 04:12:00,
2013-02-25 22:14:00,33.4,29.1,30.04,East,85,11.0,12.1,84,0.00,,,0.00,0.00,VWS V14.01,2013-02-26 04:14:00,
2013-02-25 22:15:00,33.4,29.1,30.04,ESE,106,2.2,4.4,84,0.00,,,0.00,0.00,VWS V14.01,2013-02-26 04:15:00,
2013-02-25 22:16:00,33.4,29.1,30.04,NE,46,7.7,7.7,84,0.00,,,0.00,0.00,VWS V14.01,2013-02-26 04:16:00,
2013-02-25 22:18:00,33.4,29.1,30.04,ENE,70,4.4,8.8,84,0.00,,,0.00,0.00,VWS V14.01,2013-02-26 04:18:00,
2013-02-25 22:19:00,33.4,29.1,30.04,ENE,64,7.7,7.7,84,0.00,,,0.00,0.00,VWS V14.01,2013-02-26 04:19:00,
2013-02-25 22:20:00,33.3,29.0,30.03,ENE,60,5.5,7.7,84,0.00,,,0.00,0.00,VWS V14.01,2013-02-26 04:20:00,
2013-02-25 22:21:00,33.3,29.0,30.04,NNE,33,8.8,11.0,84,0.00,,,0.00,0.00,VWS V14.01,2013-02-26 04:21:00,
2013-02-25 22:23:00,33.3,29.0,30.03,NE,46,9.9,9.9,84,0.00,,,0.00,0.00,VWS V14.01,2013-02-26 04:23:00,
2013-02-25 22:24:00,33.3,29.0,30.03,NNE,25,9.9,14.3,84,0.00,,,0.00,0.00,VWS V14.01,2013-02-26 04:24:00,
2013-02-25 22:25:00,33.3,29.0,30.03,NE,52,7.7,9.9,84,0.00,,,0.00,0.00,VWS V14.01,2013-02-26 04:25:00,
2013-02-25 22:27:00,33.4,29.1,30.03,NE,52,5.5,9.9,84,0.00,,,0.00,0.00,VWS V14.01,2013-02-26 04:27:00,
2013-02-25 22:28:00,33.4,29.1,30.03,NE,49,9.9,11.0,84,0.00,,,0.00,0.00,VWS V14.01,2013-02-26 04:28:00,
2013-02-25 22:29:00,33.4,29.1,30.03,ENE,71,4.4,8.8,84,0.00,,,0.00,0.00,VWS V14.01,2013-02-26 04:29:00,
2013-02-25 22:31:00,33.4,29.1,30.03,East,100,6.6,7.7,84,0.00,,,0.00,0.00,VWS V14.01,2013-02-26 04:31:00,
2013-02-25 22:32:00,33.4,29.1,30.03,NE,35,6.6,11.0,84,0.00,,,0.00,0.00,VWS V14.01,2013-02-26 04:32:00,
2013-02-25 22:34:00,33.5,29.2,30.02,ENE,74,4.4,4.4,84,0.00,,,0.00,0.00,VWS V14.01,2013-02-26 04:34:00,
2013-02-25 22:35:00,33.5,28.9,30.02,East,85,14.3,15.4,83,0.00,,,0.00,0.00,VWS V14.01,2013-02-26 04:35:00,
2013-02-25 22:36:00,33.5,28.9,30.02,NE,47,9.9,9.9,83,0.00,,,0.00,0.00,VWS V14.01,2013-02-26 04:36:00,
2013-02-25 22:38:00,33.5,28.9,30.02,ENE,61,3.3,7.7,83,0.00,,,0.00,0.00,VWS V14.01,2013-02-26 04:38:00,
2013-02-25 22:39:00,33.5,28.9,30.02,NNE,17,8.8,9.9,83,0.00,,,0.00,0.00,VWS V14.01,2013-02-26 04:39:00,
2013-02-25 22:41:00,33.5,28.9,30.02,NE,55,8.8,9.9,83,0.00,,,0.00,0.00,VWS V14.01,2013-02-26 04:41:00,
2013-02-25 22:42:00,33.5,28.9,30.02,NE,36,3.3,8.8,83,0.00,,,0.00,0.00,VWS V14.01,2013-02-26 04:42:00,
2013-02-25 22:44:00,33.5,28.9,30.02,NNE,18,9.9,9.9,83,0.00,,,0.00,0.00,VWS V14.01,2013-02-26 04:44:00,
2013-02-25 22:45:00,33.5,28.9,30.02,ENE,75,11.0,12.1,83,0.00,,,0.00,0.00,VWS V14.01,2013-02-26 04:45:00,
2013-02-25 22:46:00,33.5,28.9,30.02,NE,44,5.5,13.2,83,0.00,,,0.00,0.00,VWS V14.01,2013-02-26 04:46:00,
2013-02-25 22:47:00,33.5,28.9,30.02,NE,51,4.4,9.9,83,0.00,,,0.00,0.00,VWS V14.01,2013-02-26 04:47:00,
2013-02-25 22:49:00,33.5,28.9,30.02,NNE,33,6.6,11.0,83,0.00,,,0.00,0.00,VWS V14.01,2013-02-26 04:49:00,
2013-02-25 22:50:00,33.5,28.9,30.02,ENE,58,7.7,9.9,83,0.00,,,0.00,0.00,VWS V14.01,2013-02-26 04:50:00,
2013-02-25 22:51:00,33.5,28.9,30.02,NE,40,7.7,9.9,83,0.00,,,0.00,0.00,VWS V14.01,2013-02-26 04:51:00,
2013-02-25 22:53:00,33.5,28.9,30.02,NNE,23,6.6,9.9,83,0.00,,,0.00,0.00,VWS V14.01,2013-02-26 04:53:00,
2013-02-25 22:55:00,33.5,28.9,30.02,ENE,64,8.8,13.2,83,0.00,,,0.00,0.00,VWS V14.01,2013-02-26 04:55:00,
2013-02-25 22:56:00,33.5,28.9,30.02,ENE,64,2.2,6.6,83,0.00,,,0.00,0.00,VWS V14.01,2013-02-26 04:56:00,
2013-02-25 22:58:00,33.5,28.9,30.01,NE,55,5.5,8.8,83,0.00,,,0.00,0.00,VWS V14.01,2013-02-26 04:58:00,
2013-02-25 23:00:00,33.5,28.9,30.01,ENE,57,11.0,11.0,83,0.00,,,0.00,0.00,VWS V14.01,2013-02-26 05:00:00,
2013-02-25 23:05:00,33.5,28.9,30.01,ENE,68,11.0,11.0,83,0.00,,,0.00,0.00,VWS V14.01,2013-02-26 05:05:00,
2013-02-25 23:06:00,33.6,29.0,30.01,ESE,116,5.5,13.2,83,0.00,,,0.00,0.00,VWS V14.01,2013-02-26 05:06:00,
2013-02-25 23:11:00,33.5,28.9,30.01,ENE,71,4.4,13.2,83,0.00,,,0.00,0.00,VWS V14.01,2013-02-26 05:11:00,
2013-02-25 23:12:00,33.5,28.9,30.01,NE,54,4.4,5.5,83,0.00,,,0.00,0.00,VWS V14.01,2013-02-26 05:12:00,
2013-02-25 23:16:00,33.5,28.9,30.00,NE,46,3.3,12.1,83,0.00,,,0.00,0.00,VWS V14.01,2013-02-26 05:16:00,
2013-02-25 23:17:00,33.5,28.9,30.00,ENE,74,7.7,8.8,83,0.00,,,0.00,0.00,VWS V14.01,2013-02-26 05:17:00,
2013-02-25 23:18:00,33.4,28.8,30.00,ENE,72,5.5,9.9,83,0.00,,,0.00,0.00,VWS V14.01,2013-02-26 05:18:00,
2013-02-25 23:22:00,33.4,28.8,30.00,ENE,72,9.9,9.9,83,0.00,,,0.00,0.00,VWS V14.01,2013-02-26 05:22:00,
2013-02-25 23:23:00,33.3,28.7,30.00,NNE,25,4.4,8.8,83,0.00,,,0.00,0.00,VWS V14.01,2013-02-26 05:23:00,
2013-02-25 23:27:00,33.3,29.0,30.00,NE,44,5.5,12.1,84,0.00,,,0.00,0.00,VWS V14.01,2013-02-26 05:27:00,
2013-02-25 23:28:00,33.3,29.0,30.00,NNE,17,3.3,5.5,84,0.00,,,0.00,0.00,VWS V14.01,2013-02-26 05:28:00,
2013-02-25 23:32:00,33.3,29.0,30.01,ENE,73,5.5,6.6,84,0.00,,,0.00,0.00,VWS V14.01,2013-02-26 05:32:00,
2013-02-25 23:33:00,33.3,29.0,30.01,ENE,70,5.5,9.9,84,0.00,,,0.00,0.00,VWS V14.01,2013-02-26 05:33:00,
2013-02-25 23:38:00,33.4,28.8,30.00,East,86,6.6,13.2,83,0.00,,,0.00,0.00,VWS V14.01,2013-02-26 05:38:00,
2013-02-25 23:39:00,33.4,28.8,30.00,ESE,116,5.5,8.8,83,0.00,,,0.00,0.00,VWS V14.01,2013-02-26 05:39:00,
2013-02-25 23:43:00,33.4,28.8,30.00,NE,50,4.4,7.7,83,0.00,,,0.00,0.00,VWS V14.01,2013-02-26 05:43:00,
2013-02-25 23:44:00,33.5,28.9,30.00,NE,56,5.5,7.7,83,0.00,,,0.00,0.00,VWS V14.01,2013-02-26 05:44:00,
2013-02-25 23:48:00,33.5,28.9,29.99,ENE,70,7.7,7.7,83,0.00,,,0.00,0.00,VWS V14.01,2013-02-26 05:48:00,
2013-02-25 23:49:00,33.4,28.8,29.99,ENE,68,5.5,11.0,83,0.00,,,0.00,0.00,VWS V14.01,2013-02-26 05:49:00,
2013-02-25 23:50:00,33.4,28.8,29.99,NE,34,7.7,7.7,83,0.00,,,0.00,0.00,VWS V14.01,2013-02-26 05:50:00,
2013-02-25 23:54:00,33.5,28.9,29.98,NE,53,5.5,11.0,83,0.00,,,0.00,0.00,VWS V14.01,2013-02-26 05:54:00,
2013-02-25 23:55:00,33.5,28.9,29.98,East,79,9.9,13.2,83,0.00,,,0.00,0.00,VWS V14.01,2013-02-26 05:55:00,
2013-02-25 23:56:00,33.5,28.9,29.98,NE,41,7.7,8.8,83,0.00,,,0.00,0.00,VWS V14.01,2013-02-26 05:56:00,
2013-02-25 23:59:00,33.5,28.9,29.98,ENE,67,11.0,11.0,83,0.00,,,0.00,0.00,VWS V14.01,2013-02-26 05:59:00,